CCA4580 ZUCK-PANC

Flight info

Callsign CCA4580
Flight time 9h 32m
Altitude 33100
Route OLNER B213 WHA R343 PK W116 JTN G327 LAMEN A593 SADLI Y590 BEDAR Y591 BESMU Y14 SAMON Y142 GTC Y512 OATIS Y889 PUTER A590 HAMND NEELL7
Aircraft A346/H-SDE2E3FGHIJ3J4J5M1RWXY/LB1D1

Departure

Time 2026-04-22 15:02
Airport Chongqing Jiangbei International Airport (ZUCK)

Arrival

Time 2026-04-23 00:34
Airport Ted Stevens Anchorage International Airport (PANC)
Time Latitude Longitude Altitude Speed Heading
2026-04-22 14:32 29.71300 106.65525 1379 ft 0 kts 296°
2026-04-22 14:52 29.71299 106.65528 1379 ft 2 kts 296°
2026-04-22 14:52 29.71292 106.65544 1379 ft 2 kts 296°
2026-04-22 14:53 29.71286 106.65559 1379 ft 2 kts 296°
2026-04-22 14:53 29.71274 106.65578 1379 ft 2 kts 319°
2026-04-22 14:53 29.71266 106.65585 1379 ft 2 kts 330°
2026-04-22 14:53 29.71248 106.65594 1379 ft 2 kts 351°
2026-04-22 14:54 29.71233 106.65595 1379 ft 2 kts
2026-04-22 14:54 29.71223 106.65593 1379 ft 1 kts 16°
2026-04-22 14:54 29.71220 106.65591 1379 ft 0 kts 18°
2026-04-22 14:57 29.71223 106.65593 1379 ft 1 kts 20°
2026-04-22 14:58 29.71238 106.65601 1379 ft 3 kts 26°
2026-04-22 14:58 29.71266 106.65617 1379 ft 5 kts 28°
2026-04-22 14:58 29.71304 106.65642 1379 ft 7 kts 32°
2026-04-22 14:58 29.71335 106.65665 1379 ft 8 kts 33°
2026-04-22 14:59 29.71409 106.65718 1379 ft 10 kts 29°
2026-04-22 14:59 29.71454 106.65741 1379 ft 11 kts 21°
2026-04-22 14:59 29.71513 106.65773 1379 ft 9 kts 51°
2026-04-22 14:59 29.71513 106.65878 1379 ft 8 kts 106°
2026-04-22 15:00 29.71495 106.65951 1379 ft 10 kts 106°
2026-04-22 15:00 29.71473 106.66034 1379 ft 11 kts 106°
2026-04-22 15:00 29.71456 106.66122 1379 ft 10 kts 79°
2026-04-22 15:00 29.71487 106.66158 1379 ft 7 kts 15°
2026-04-22 15:01 29.71551 106.66181 1379 ft 22 kts 18°
2026-04-22 15:01 29.71935 106.66319 1379 ft 90 kts 17°
2026-04-22 15:01 29.72730 106.66597 1379 ft 147 kts 17°
2026-04-22 15:01 29.73887 106.66997 1386 ft 193 kts 17°
2026-04-22 15:02 29.75685 106.67615 1886 ft 207 kts 16°
2026-04-22 15:02 29.77066 106.68129 2487 ft 212 kts 21°
2026-04-22 15:02 29.77956 106.68608 2933 ft 214 kts 28°
2026-04-22 15:02 29.79207 106.69559 3605 ft 217 kts 36°
2026-04-22 15:03 29.80427 106.70608 4272 ft 219 kts 32°
2026-04-22 15:03 29.82138 106.71892 5038 ft 228 kts 31°
2026-04-22 15:03 29.83516 106.72890 5355 ft 243 kts 31°
2026-04-22 15:03 29.84492 106.73589 5526 ft 253 kts 31°
2026-04-22 15:04 29.86516 106.75166 5920 ft 273 kts 40°
2026-04-22 15:04 29.87824 106.76759 6410 ft 279 kts 51°
2026-04-22 15:04 29.89001 106.78564 7005 ft 281 kts 53°
2026-04-22 15:04 29.90145 106.80382 7563 ft 284 kts 53°
2026-04-22 15:05 29.90917 106.81609 7957 ft 285 kts 53°
2026-04-22 15:05 29.92071 106.83438 8598 ft 284 kts 53°
2026-04-22 15:05 29.93635 106.85910 9294 ft 288 kts 53°
2026-04-22 15:05 29.94421 106.87150 9619 ft 290 kts 53°
2026-04-22 15:06 29.95610 106.89020 10078 ft 295 kts 53°
2026-04-22 15:06 29.97275 106.91637 10415 ft 312 kts 53°
2026-04-22 15:06 29.98156 106.93022 10583 ft 322 kts 53°
2026-04-22 15:06 29.99965 106.95867 10910 ft 339 kts 53°
2026-04-22 15:07 30.00903 106.97345 11072 ft 348 kts 53°
2026-04-22 15:07 30.02361 106.99641 11312 ft 362 kts 53°
2026-04-22 15:07 30.03886 107.02043 11550 ft 375 kts 54°
2026-04-22 15:07 30.05961 107.05317 11952 ft 389 kts 54°
2026-04-22 15:08 30.07049 107.07032 12296 ft 392 kts 54°
2026-04-22 15:08 30.09186 107.10419 13044 ft 396 kts 56°
2026-04-22 15:08 30.10099 107.12243 13364 ft 397 kts 68°
2026-04-22 15:08 30.10696 107.16407 14003 ft 398 kts 97°
2026-04-22 15:09 30.10094 107.19495 14514 ft 398 kts 109°
2026-04-22 15:09 30.09252 107.22549 15013 ft 401 kts 109°
2026-04-22 15:09 30.08392 107.25636 15471 ft 405 kts 109°
2026-04-22 15:09 30.07823 107.27698 15782 ft 407 kts 109°
2026-04-22 15:10 30.06971 107.30820 16254 ft 410 kts 109°
2026-04-22 15:10 30.06109 107.34003 16725 ft 413 kts 109°
2026-04-22 15:10 30.04968 107.38239 17330 ft 418 kts 109°
2026-04-22 15:10 30.04115 107.41410 17767 ft 421 kts 109°
2026-04-22 15:11 30.03530 107.43590 18061 ft 423 kts 109°
2026-04-22 15:11 30.02655 107.46844 18491 ft 426 kts 109°
2026-04-22 15:11 30.01485 107.51187 19050 ft 430 kts 109°
2026-04-22 15:11 30.00594 107.54493 19461 ft 433 kts 109°
2026-04-22 15:12 29.99692 107.57835 19864 ft 436 kts 109°
2026-04-22 15:12 29.99088 107.60068 20129 ft 438 kts 109°
2026-04-22 15:12 29.98180 107.63427 20525 ft 440 kts 109°
2026-04-22 15:12 29.97266 107.66805 20908 ft 443 kts 109°
2026-04-22 15:13 29.96343 107.70208 21283 ft 446 kts 109°
2026-04-22 15:13 29.95101 107.74785 21772 ft 450 kts 109°
2026-04-22 15:13 29.94479 107.77080 22009 ft 452 kts 109°
2026-04-22 15:13 29.93841 107.80633 22333 ft 458 kts 97°
2026-04-22 15:14 29.93994 107.85540 22781 ft 464 kts 81°
2026-04-22 15:14 29.94788 107.89179 23125 ft 467 kts 75°
2026-04-22 15:14 29.95407 107.91595 23353 ft 469 kts 74°
2026-04-22 15:14 29.96673 107.96408 23778 ft 473 kts 74°
2026-04-22 15:15 29.97311 107.98852 23996 ft 474 kts 74°
2026-04-22 15:15 29.98570 108.03741 24424 ft 478 kts 74°
2026-04-22 15:15 29.99199 108.06213 24635 ft 479 kts 74°
2026-04-22 15:15 30.00444 108.11138 25047 ft 482 kts 74°
2026-04-22 15:16 30.01381 108.14868 25345 ft 485 kts 74°
2026-04-22 15:16 30.02010 108.17375 25541 ft 487 kts 74°
2026-04-22 15:16 30.02951 108.21133 25834 ft 489 kts 74°
2026-04-22 15:16 30.03895 108.24912 26126 ft 491 kts 74°
2026-04-22 15:17 30.04831 108.28661 26404 ft 494 kts 74°
2026-04-22 15:17 30.06099 108.33748 26771 ft 497 kts 74°
2026-04-22 15:17 30.07068 108.37632 27053 ft 499 kts 74°
2026-04-22 15:17 30.07702 108.40172 27228 ft 500 kts 74°
2026-04-22 15:18 30.08669 108.44059 27487 ft 503 kts 74°
2026-04-22 15:18 30.09962 108.49265 27828 ft 506 kts 74°
2026-04-22 15:18 30.10927 108.53165 28096 ft 507 kts 74°
2026-04-22 15:18 30.11940 108.57076 28446 ft 507 kts 72°
2026-04-22 15:19 30.13043 108.60917 28823 ft 506 kts 71°
2026-04-22 15:19 30.13786 108.63460 29064 ft 505 kts 71°
2026-04-22 15:19 30.14927 108.67348 29414 ft 505 kts 71°
2026-04-22 15:19 30.16048 108.71175 29731 ft 505 kts 71°
2026-04-22 15:20 30.17178 108.75043 30043 ft 504 kts 71°
2026-04-22 15:20 30.18672 108.80177 30389 ft 506 kts 71°
2026-04-22 15:20 30.19413 108.82730 30550 ft 506 kts 71°
2026-04-22 15:20 30.20899 108.87859 30944 ft 506 kts 71°
2026-04-22 15:21 30.22014 108.91718 31255 ft 505 kts 72°
2026-04-22 15:21 30.23032 108.95602 31531 ft 505 kts 73°
2026-04-22 15:21 30.23681 108.98202 31699 ft 505 kts 74°
2026-04-22 15:21 30.24644 109.02123 31935 ft 506 kts 74°
2026-04-22 15:22 30.25923 109.07362 32248 ft 506 kts 74°
2026-04-22 15:22 30.26870 109.11240 32481 ft 506 kts 73°
2026-04-22 15:22 30.27516 109.13884 32634 ft 506 kts 73°
2026-04-22 15:22 30.28469 109.17777 32851 ft 506 kts 73°
2026-04-22 15:23 30.29433 109.21719 33070 ft 506 kts 73°
2026-04-22 15:23 30.30704 109.26917 33153 ft 507 kts 73°
2026-04-22 15:23 30.32303 109.33469 33157 ft 507 kts 73°
2026-04-22 15:24 30.34220 109.41331 33158 ft 508 kts 73°
2026-04-22 15:24 30.36129 109.49174 33159 ft 508 kts 73°
2026-04-22 15:25 30.38022 109.57034 33158 ft 507 kts 73°
2026-04-22 15:25 30.39559 109.64978 33157 ft 508 kts 79°
2026-04-22 15:26 30.40948 109.74380 33157 ft 508 kts 80°
2026-04-22 15:26 30.41930 109.81117 33157 ft 508 kts 80°
2026-04-22 15:27 30.43106 109.89177 33158 ft 508 kts 80°
2026-04-22 15:27 30.44473 109.98560 33157 ft 508 kts 80°
2026-04-22 15:28 30.45454 110.05328 33158 ft 508 kts 80°
2026-04-22 15:28 30.46617 110.13386 33158 ft 508 kts 80°
2026-04-22 15:29 30.47775 110.21452 33157 ft 508 kts 80°
2026-04-22 15:30 30.49507 110.33576 33158 ft 508 kts 80°
2026-04-22 15:30 30.50647 110.41603 33158 ft 507 kts 80°
2026-04-22 15:31 30.51788 110.49670 33157 ft 507 kts 80°
2026-04-22 15:31 30.52923 110.57731 33159 ft 507 kts 80°
2026-04-22 15:32 30.54241 110.67145 33156 ft 507 kts 81°
2026-04-22 15:32 30.55181 110.73891 33158 ft 507 kts 81°
2026-04-22 15:33 30.56297 110.81941 33158 ft 507 kts 81°
2026-04-22 15:33 30.57420 110.90067 33158 ft 507 kts 81°
2026-04-22 15:34 30.58529 110.98133 33155 ft 507 kts 81°
2026-04-22 15:34 30.59810 111.07502 33147 ft 505 kts 81°
2026-04-22 15:35 30.60722 111.14215 33141 ft 505 kts 81°
2026-04-22 15:35 30.61995 111.23631 33135 ft 505 kts 81°
2026-04-22 15:36 30.62893 111.30297 33132 ft 505 kts 81°
2026-04-22 15:36 30.63976 111.38357 33131 ft 504 kts 81°
2026-04-22 15:37 30.65160 111.47737 33131 ft 505 kts 83°
2026-04-22 15:37 30.65605 111.54507 33133 ft 504 kts 86°
2026-04-22 15:38 30.66077 111.64029 33131 ft 505 kts 86°
2026-04-22 15:38 30.66696 111.76185 33131 ft 505 kts 87°
2026-04-22 15:39 30.67041 111.82961 33131 ft 505 kts 87°
2026-04-22 15:39 30.67513 111.92442 33131 ft 504 kts 87°
2026-04-22 15:40 30.67877 111.99253 33131 ft 505 kts 86°
2026-04-22 15:40 30.68541 112.08695 33131 ft 505 kts 85°
2026-04-22 15:41 30.69019 112.15479 33132 ft 504 kts 85°
2026-04-22 15:41 30.69663 112.24908 33132 ft 505 kts 85°
2026-04-22 15:42 30.70208 112.33041 33131 ft 505 kts 85°
2026-04-22 15:42 30.70655 112.39786 33133 ft 505 kts 85°
2026-04-22 15:43 30.71189 112.47936 33132 ft 505 kts 85°
2026-04-22 15:43 30.71804 112.57388 33131 ft 505 kts 85°
2026-04-22 15:44 30.72240 112.64171 33131 ft 505 kts 85°
2026-04-22 15:44 30.72759 112.72316 33131 ft 505 kts 86°
2026-04-22 15:45 30.73359 112.81828 33131 ft 505 kts 86°
2026-04-22 15:45 30.73776 112.88590 33132 ft 505 kts 86°
2026-04-22 15:46 30.74272 112.96721 33132 ft 504 kts 86°
2026-04-22 15:46 30.74769 113.04860 33132 ft 504 kts 86°
2026-04-22 15:47 30.75258 113.12966 33131 ft 503 kts 87°
2026-04-22 15:47 30.75571 113.22445 33132 ft 503 kts 89°
2026-04-22 15:48 30.75745 113.29207 33131 ft 504 kts 89°
2026-04-22 15:48 30.75948 113.37292 33131 ft 503 kts 89°
2026-04-22 15:49 30.76149 113.45465 33131 ft 504 kts 89°
2026-04-22 15:49 30.76376 113.54896 33131 ft 504 kts 89°
2026-04-22 15:50 30.76536 113.61710 33132 ft 504 kts 89°
2026-04-22 15:50 30.76721 113.69804 33130 ft 503 kts 89°
2026-04-22 15:51 30.76932 113.79314 33132 ft 503 kts 89°
2026-04-22 15:51 30.77079 113.86115 33131 ft 503 kts 89°
2026-04-22 15:52 30.77248 113.94232 33132 ft 504 kts 89°
2026-04-22 15:52 30.77417 114.02351 33131 ft 504 kts 89°
2026-04-22 15:53 30.77879 114.11820 33131 ft 504 kts 84°
2026-04-22 15:53 30.78700 114.18533 33131 ft 504 kts 79°
2026-04-22 15:54 30.80729 114.27748 33131 ft 504 kts 71°
2026-04-22 15:54 30.82710 114.34173 33132 ft 504 kts 69°
2026-04-22 15:55 30.85186 114.41790 33132 ft 504 kts 69°
2026-04-22 15:55 30.88061 114.50690 33131 ft 504 kts 69°
2026-04-22 15:56 30.90547 114.58327 33130 ft 505 kts 69°
2026-04-22 15:56 30.92611 114.64691 33130 ft 507 kts 68°
2026-04-22 15:57 30.95526 114.73705 33131 ft 509 kts 69°
2026-04-22 15:57 30.98014 114.81425 33131 ft 511 kts 69°
2026-04-22 15:58 31.00525 114.89239 33131 ft 513 kts 69°
2026-04-22 15:58 31.03023 114.97025 33130 ft 515 kts 69°
2026-04-22 15:59 31.05526 115.04840 33131 ft 517 kts 69°
2026-04-22 15:59 31.08046 115.12732 33131 ft 517 kts 69°
2026-04-22 16:00 31.10551 115.20606 33132 ft 517 kts 69°
2026-04-22 16:00 31.13039 115.28477 33131 ft 517 kts 69°
2026-04-22 16:01 31.15570 115.36320 33132 ft 517 kts 69°
2026-04-22 16:01 31.18114 115.44147 33131 ft 517 kts 68°
2026-04-22 16:02 31.20662 115.52029 33132 ft 517 kts 69°
2026-04-22 16:02 31.23190 115.59875 33132 ft 517 kts 69°
2026-04-22 16:03 31.25721 115.67753 33130 ft 517 kts 69°
2026-04-22 16:03 31.27826 115.74329 33131 ft 517 kts 69°
2026-04-22 16:04 31.30749 115.83473 33132 ft 517 kts 69°
2026-04-22 16:04 31.32851 115.90052 33131 ft 517 kts 69°
2026-04-22 16:05 31.35420 115.97914 33132 ft 517 kts 69°
2026-04-22 16:05 31.38408 116.07062 33132 ft 517 kts 69°
2026-04-22 16:06 31.40976 116.14963 33131 ft 517 kts 69°
2026-04-22 16:06 31.43516 116.22803 33061 ft 518 kts 69°
2026-04-22 16:07 31.46072 116.30714 32986 ft 519 kts 69°
2026-04-22 16:07 31.48624 116.38630 32954 ft 519 kts 69°
2026-04-22 16:08 31.51155 116.46500 32944 ft 519 kts 69°
2026-04-22 16:08 31.53268 116.53090 32941 ft 519 kts 69°
2026-04-22 16:09 31.55807 116.61022 32941 ft 519 kts 69°
2026-04-22 16:09 31.58329 116.68921 32939 ft 519 kts 69°
2026-04-22 16:10 31.60864 116.76882 32940 ft 519 kts 69°
2026-04-22 16:10 31.63382 116.84812 32940 ft 519 kts 69°
2026-04-22 16:11 31.65892 116.92737 32940 ft 520 kts 69°
2026-04-22 16:11 31.68400 117.00668 32939 ft 520 kts 70°
2026-04-22 16:12 31.70893 117.08682 32940 ft 521 kts 70°
2026-04-22 16:12 31.73355 117.16687 32941 ft 522 kts 70°
2026-04-22 16:13 31.75459 117.24812 32940 ft 521 kts 78°
2026-04-22 16:13 31.76603 117.33195 32940 ft 520 kts 86°
2026-04-22 16:14 31.76740 117.41665 32940 ft 517 kts 95°
2026-04-22 16:14 31.76181 117.50046 32940 ft 517 kts 97°
2026-04-22 16:15 31.75562 117.58446 32940 ft 516 kts 97°
2026-04-22 16:15 31.74958 117.66891 32938 ft 517 kts 97°
2026-04-22 16:16 31.74363 117.75273 32941 ft 516 kts 97°
2026-04-22 16:16 31.73764 117.83655 32941 ft 516 kts 97°
2026-04-22 16:17 31.73157 117.92087 32940 ft 516 kts 97°
2026-04-22 16:17 31.72443 118.01878 32940 ft 516 kts 97°
2026-04-22 16:18 31.71825 118.10283 32940 ft 517 kts 97°
2026-04-22 16:18 31.71237 118.18697 32940 ft 516 kts 97°
2026-04-22 16:19 31.70663 118.27056 32941 ft 517 kts 97°
2026-04-22 16:19 31.70171 118.34096 32939 ft 516 kts 97°
2026-04-22 16:20 31.69577 118.42477 32939 ft 516 kts 97°
2026-04-22 16:20 31.68877 118.52255 32940 ft 516 kts 97°
2026-04-22 16:21 31.68370 118.59235 32940 ft 517 kts 97°
2026-04-22 16:21 31.67754 118.67665 32938 ft 517 kts 97°
2026-04-22 16:22 31.66719 118.81654 33031 ft 515 kts 97°
2026-04-22 16:23 31.65778 118.94186 33069 ft 514 kts 97°
2026-04-22 16:23 31.65144 119.02553 33073 ft 513 kts 97°
2026-04-22 16:24 31.64516 119.13648 33075 ft 514 kts 95°
2026-04-22 16:25 31.64156 119.22029 33075 ft 514 kts 95°
2026-04-22 16:25 31.63597 119.34617 33075 ft 514 kts 95°
2026-04-22 16:26 31.63143 119.44366 33075 ft 514 kts 95°
2026-04-22 16:26 31.62812 119.51342 33075 ft 514 kts 95°
2026-04-22 16:27 31.62410 119.59656 33075 ft 514 kts 95°
2026-04-22 16:27 31.61934 119.69430 33073 ft 514 kts 95°
2026-04-22 16:28 31.61620 119.76427 33075 ft 514 kts 95°
2026-04-22 16:28 31.61240 119.84805 33075 ft 514 kts 95°
2026-04-22 16:29 31.60783 119.94590 33075 ft 514 kts 95°
2026-04-22 16:29 31.60451 120.01532 33075 ft 513 kts 95°
2026-04-22 16:30 31.59977 120.11301 33070 ft 514 kts 95°
2026-04-22 16:30 31.59633 120.18303 33059 ft 514 kts 95°
2026-04-22 16:31 31.59074 120.26651 33042 ft 513 kts 99°
2026-04-22 16:31 31.57812 120.34804 33029 ft 511 kts 106°
2026-04-22 16:32 31.55774 120.42777 33024 ft 508 kts 112°
2026-04-22 16:32 31.53031 120.51898 33022 ft 508 kts 112°
2026-04-22 16:33 31.50686 120.59686 33022 ft 508 kts 112°
2026-04-22 16:33 31.48730 120.66195 33021 ft 508 kts 112°
2026-04-22 16:34 31.45991 120.75307 33022 ft 508 kts 112°
2026-04-22 16:34 31.43644 120.83099 33022 ft 508 kts 112°
2026-04-22 16:35 31.41288 120.90894 33022 ft 508 kts 112°
2026-04-22 16:35 31.38936 120.98655 33022 ft 508 kts 112°
2026-04-22 16:36 31.36569 121.06438 33022 ft 508 kts 112°
2026-04-22 16:36 31.34592 121.12920 33022 ft 507 kts 112°
2026-04-22 16:37 31.31651 121.21975 33016 ft 504 kts 120°
2026-04-22 16:37 31.29839 121.25404 33020 ft 499 kts 131°
2026-04-22 16:37 31.27504 121.28387 33021 ft 493 kts 142°
2026-04-22 16:38 31.22855 121.32209 33026 ft 487 kts 152°
2026-04-22 16:38 31.17091 121.36321 33021 ft 488 kts 150°
2026-04-22 16:39 31.13682 121.39877 33018 ft 499 kts 131°
2026-04-22 16:39 31.11811 121.43266 33021 ft 505 kts 118°
2026-04-22 16:39 31.10628 121.47105 33022 ft 510 kts 104°
2026-04-22 16:39 31.10004 121.51199 33027 ft 512 kts 100°
2026-04-22 16:40 31.09140 121.58059 33019 ft 512 kts 100°
2026-04-22 16:41 31.07355 121.71813 33003 ft 511 kts 101°
2026-04-22 16:41 31.06250 121.79957 32998 ft 511 kts 101°
2026-04-22 16:42 31.05128 121.88143 32996 ft 511 kts 101°
2026-04-22 16:42 31.03999 121.96322 32995 ft 512 kts 101°
2026-04-22 16:43 31.03057 122.03116 32997 ft 510 kts 101°
2026-04-22 16:43 31.01728 122.12650 32996 ft 509 kts 101°
2026-04-22 16:44 31.00615 122.20752 32996 ft 508 kts 99°
2026-04-22 16:44 31.00064 122.27573 32996 ft 508 kts 94°
2026-04-22 16:45 30.99986 122.37184 32996 ft 509 kts 91°
2026-04-22 16:45 31.00004 122.45435 32996 ft 509 kts 91°
2026-04-22 16:46 31.00011 122.53667 32996 ft 509 kts 91°
2026-04-22 16:46 31.00008 122.60520 32996 ft 509 kts 91°
2026-04-22 16:47 31.00008 122.70144 32995 ft 509 kts 91°
2026-04-22 16:47 31.00016 122.76968 32995 ft 509 kts 91°
2026-04-22 16:48 31.00016 122.85216 32995 ft 509 kts 91°
2026-04-22 16:48 31.00677 122.94771 32995 ft 511 kts 79°
2026-04-22 16:49 31.02716 123.02715 32994 ft 513 kts 67°
2026-04-22 16:49 31.06058 123.10020 32995 ft 513 kts 54°
2026-04-22 16:50 31.10199 123.16803 32996 ft 512 kts 52°
2026-04-22 16:50 31.13667 123.22367 32995 ft 512 kts 52°
2026-04-22 16:51 31.17833 123.29125 32996 ft 512 kts 52°
2026-04-22 16:51 31.22658 123.37015 32996 ft 512 kts 53°
2026-04-22 16:52 31.26094 123.42657 32996 ft 512 kts 53°
2026-04-22 16:52 31.30202 123.49413 32996 ft 512 kts 53°
2026-04-22 16:53 31.35010 123.57316 33004 ft 512 kts 52°
2026-04-22 16:53 31.39146 123.64063 33013 ft 512 kts 52°
2026-04-22 16:54 31.42617 123.69742 33016 ft 512 kts 53°
2026-04-22 16:54 31.47420 123.77621 33019 ft 513 kts 53°
2026-04-22 16:55 31.51545 123.84409 33020 ft 512 kts 53°
2026-04-22 16:55 31.55642 123.91228 33020 ft 513 kts 55°
2026-04-22 16:56 31.58701 123.97214 33020 ft 514 kts 61°
2026-04-22 16:56 31.61691 124.04801 33020 ft 515 kts 68°
2026-04-22 16:57 31.63915 124.12777 33020 ft 515 kts 75°
2026-04-22 16:57 31.66000 124.22212 33020 ft 515 kts 75°
2026-04-22 16:58 31.67492 124.29019 33020 ft 515 kts 75°
2026-04-22 16:58 31.69576 124.38467 33020 ft 515 kts 75°
2026-04-22 16:59 31.71380 124.46646 33013 ft 515 kts 75°
2026-04-22 16:59 31.73167 124.54762 33000 ft 515 kts 75°
2026-04-22 17:00 31.74651 124.61526 32987 ft 515 kts 75°
2026-04-22 17:00 31.77328 124.73784 32972 ft 515 kts 76°
2026-04-22 17:01 31.79390 124.83276 32969 ft 515 kts 75°
2026-04-22 17:01 31.81023 124.91467 32967 ft 514 kts 80°
2026-04-22 17:02 31.81790 124.99804 32968 ft 514 kts 88°
2026-04-22 17:02 31.81656 125.06788 32967 ft 513 kts 95°
2026-04-22 17:03 31.80399 125.16386 32968 ft 512 kts 102°
2026-04-22 17:03 31.79021 125.24563 32967 ft 512 kts 102°
2026-04-22 17:04 31.77646 125.32803 32967 ft 512 kts 102°
2026-04-22 17:04 31.76291 125.40990 32966 ft 512 kts 101°
2026-04-22 17:05 31.74933 125.49180 32967 ft 512 kts 101°
2026-04-22 17:05 31.73693 125.57398 32966 ft 512 kts 97°
2026-04-22 17:06 31.73309 125.65768 32966 ft 513 kts 89°
2026-04-22 17:06 31.73942 125.74072 32967 ft 512 kts 80°
2026-04-22 17:07 31.75217 125.80893 32968 ft 512 kts 75°
2026-04-22 17:07 31.77360 125.90307 32967 ft 512 kts 74°
2026-04-22 17:08 31.79166 125.98399 32975 ft 513 kts 75°
2026-04-22 17:08 31.80938 126.06491 32991 ft 514 kts 75°
2026-04-22 17:09 31.82707 126.14604 33000 ft 513 kts 75°
2026-04-22 17:09 31.84471 126.22735 33005 ft 513 kts 75°
2026-04-22 17:10 31.86228 126.30865 33006 ft 513 kts 75°
2026-04-22 17:10 31.87972 126.38972 33007 ft 513 kts 75°
2026-04-22 17:11 31.89410 126.45679 33007 ft 513 kts 75°
2026-04-22 17:11 31.91471 126.55119 33007 ft 513 kts 74°
2026-04-22 17:12 31.93272 126.63220 33008 ft 513 kts 74°
2026-04-22 17:12 31.95071 126.71369 33006 ft 513 kts 75°
2026-04-22 17:13 31.96853 126.79492 33008 ft 513 kts 75°
2026-04-22 17:13 31.98635 126.87654 33013 ft 513 kts 75°
2026-04-22 17:14 32.00394 126.95746 33019 ft 512 kts 75°
2026-04-22 17:14 32.02152 127.03859 33028 ft 512 kts 75°
2026-04-22 17:15 32.04119 127.11908 33033 ft 510 kts 69°
2026-04-22 17:15 32.06751 127.19630 33036 ft 508 kts 64°
2026-04-22 17:16 32.09627 127.27200 33036 ft 507 kts 64°
2026-04-22 17:16 32.12489 127.34768 33036 ft 507 kts 64°
2026-04-22 17:17 32.15351 127.42369 33036 ft 507 kts 64°
2026-04-22 17:17 32.17732 127.48711 33037 ft 507 kts 64°
2026-04-22 17:18 32.21056 127.57597 33036 ft 507 kts 64°
2026-04-22 17:18 32.23898 127.65217 33036 ft 507 kts 65°
2026-04-22 17:19 32.29569 127.80482 33036 ft 507 kts 65°
2026-04-22 17:20 32.35213 127.95740 33036 ft 508 kts 65°
2026-04-22 17:21 32.39428 128.07181 33036 ft 508 kts 65°
2026-04-22 17:22 32.43641 128.18657 33036 ft 507 kts 65°
2026-04-22 17:23 32.47859 128.30180 33036 ft 508 kts 65°
2026-04-22 17:23 32.52074 128.41744 32996 ft 507 kts 65°
2026-04-22 17:24 32.54887 128.49480 32947 ft 508 kts 65°
2026-04-22 17:24 32.57214 128.55901 32926 ft 508 kts 65°
2026-04-22 17:25 32.60465 128.64902 32915 ft 508 kts 65°
2026-04-22 17:25 32.63276 128.72679 32911 ft 508 kts 64°
2026-04-22 17:26 32.66461 128.80145 32912 ft 506 kts 58°
2026-04-22 17:26 32.70290 128.87134 32912 ft 504 kts 51°
2026-04-22 17:27 32.73956 128.92584 32913 ft 502 kts 47°
2026-04-22 17:27 32.79259 128.99927 32911 ft 502 kts 47°
2026-04-22 17:28 32.83857 129.06299 32911 ft 502 kts 47°
2026-04-22 17:28 32.88390 129.12611 32911 ft 501 kts 47°
2026-04-22 17:29 32.92934 129.18959 32910 ft 501 kts 47°
2026-04-22 17:29 32.97446 129.25275 32909 ft 501 kts 47°
2026-04-22 17:30 33.01994 129.31657 32909 ft 505 kts 46°
2026-04-22 17:30 33.06577 129.38098 32908 ft 511 kts 46°
2026-04-22 17:31 33.10449 129.43547 32908 ft 515 kts 45°
2026-04-22 17:31 33.15899 129.51224 32910 ft 519 kts 45°
2026-04-22 17:32 33.19836 129.56779 32911 ft 519 kts 45°
2026-04-22 17:32 33.25304 129.64516 32911 ft 520 kts 45°
2026-04-22 17:33 33.29998 129.71155 32909 ft 520 kts 45°
2026-04-22 17:33 33.35004 129.77399 32911 ft 516 kts 40°
2026-04-22 17:34 33.40207 129.83479 32910 ft 517 kts 40°
2026-04-22 17:34 33.45360 129.89508 32910 ft 517 kts 40°
2026-04-22 17:35 33.50517 129.95572 32908 ft 517 kts 40°
2026-04-22 17:35 33.55683 130.01665 32906 ft 517 kts 40°
2026-04-22 17:36 33.60831 130.07748 32907 ft 517 kts 40°
2026-04-22 17:36 33.65973 130.13841 32909 ft 516 kts 40°
2026-04-22 17:37 33.71106 130.19928 32910 ft 517 kts 40°
2026-04-22 17:37 33.76238 130.26027 32910 ft 516 kts 40°
2026-04-22 17:38 33.81371 130.32140 32910 ft 516 kts 40°
2026-04-22 17:38 33.86492 130.38249 32910 ft 516 kts 40°
2026-04-22 17:39 33.91623 130.44382 32910 ft 516 kts 40°
2026-04-22 17:40 33.98431 130.52541 32910 ft 516 kts 40°
2026-04-22 17:40 34.04382 130.59735 32910 ft 517 kts 41°
2026-04-22 17:41 34.09329 130.66107 32915 ft 518 kts 43°
2026-04-22 17:41 34.14248 130.72523 32930 ft 518 kts 43°
2026-04-22 17:42 34.19174 130.78957 32946 ft 518 kts 43°
2026-04-22 17:42 34.23269 130.84331 32956 ft 519 kts 44°
2026-04-22 17:43 34.28491 130.92416 32963 ft 523 kts 52°
2026-04-22 17:43 34.32435 130.99950 32965 ft 523 kts 54°
2026-04-22 17:44 34.36263 131.07474 32966 ft 523 kts 54°
2026-04-22 17:44 34.40071 131.14941 32966 ft 523 kts 54°
2026-04-22 17:45 34.43901 131.22444 32965 ft 522 kts 54°
2026-04-22 17:45 34.47751 131.29993 32966 ft 522 kts 54°
2026-04-22 17:46 34.51540 131.37437 32965 ft 522 kts 54°
2026-04-22 17:46 34.55401 131.45041 32966 ft 522 kts 54°
2026-04-22 17:47 34.59210 131.52559 32966 ft 522 kts 54°
2026-04-22 17:47 34.63022 131.60098 32968 ft 523 kts 54°
2026-04-22 17:48 34.66180 131.66359 32978 ft 522 kts 54°
2026-04-22 17:48 34.70597 131.75134 33002 ft 522 kts 54°
2026-04-22 17:49 34.74376 131.82665 33022 ft 522 kts 54°
2026-04-22 17:49 34.78157 131.90218 33031 ft 522 kts 54°
2026-04-22 17:50 34.82102 131.97641 33035 ft 520 kts 50°
2026-04-22 17:50 34.86478 132.04567 33037 ft 518 kts 47°
2026-04-22 17:51 34.90967 132.11490 33036 ft 519 kts 47°
2026-04-22 17:51 34.95419 132.18387 33034 ft 523 kts 46°
2026-04-22 17:52 34.99965 132.25461 33030 ft 528 kts 46°
2026-04-22 17:52 35.04518 132.32565 33025 ft 533 kts 46°
2026-04-22 17:53 35.09094 132.39722 33026 ft 538 kts 46°
2026-04-22 17:53 35.13730 132.46980 33024 ft 548 kts 46°
2026-04-22 17:54 35.18406 132.54324 33023 ft 549 kts 46°
2026-04-22 17:54 35.23083 132.61691 33023 ft 549 kts 46°
2026-04-22 17:55 35.26997 132.67868 33017 ft 549 kts 47°
2026-04-22 17:55 35.32453 132.76495 33021 ft 550 kts 47°
2026-04-22 17:56 35.37119 132.83894 33022 ft 549 kts 47°
2026-04-22 17:56 35.41769 132.91283 33023 ft 550 kts 47°
2026-04-22 17:57 35.46456 132.98752 33022 ft 549 kts 47°
2026-04-22 17:57 35.51104 133.06171 33022 ft 549 kts 47°
2026-04-22 17:58 35.55473 133.13861 33023 ft 552 kts 52°
2026-04-22 17:58 35.59560 133.21808 33022 ft 551 kts 53°
2026-04-22 17:59 35.63624 133.29787 33022 ft 552 kts 53°
2026-04-22 17:59 35.67723 133.37822 33022 ft 551 kts 53°
2026-04-22 18:00 35.71107 133.44450 33021 ft 551 kts 53°
2026-04-22 18:00 35.75832 133.53723 33022 ft 552 kts 53°
2026-04-22 18:01 35.79905 133.61740 33022 ft 552 kts 53°
2026-04-22 18:01 35.83979 133.69774 33019 ft 553 kts 53°
2026-04-22 18:02 35.88033 133.77794 33023 ft 552 kts 53°
2026-04-22 18:02 35.92085 133.85831 33030 ft 552 kts 53°
2026-04-22 18:03 35.96110 133.93837 33037 ft 552 kts 53°
2026-04-22 18:03 36.00153 134.01875 33043 ft 552 kts 53°
2026-04-22 18:04 36.04195 134.09929 33046 ft 552 kts 53°
2026-04-22 18:04 36.08231 134.18005 33047 ft 552 kts 53°
2026-04-22 18:05 36.12237 134.26038 33049 ft 552 kts 53°
2026-04-22 18:05 36.16263 134.34134 33050 ft 552 kts 53°
2026-04-22 18:06 36.20275 134.42227 33050 ft 552 kts 53°
2026-04-22 18:06 36.24223 134.50345 33048 ft 554 kts 56°
2026-04-22 18:07 36.27188 134.57425 33049 ft 556 kts 59°
2026-04-22 18:07 36.31163 134.67447 33044 ft 556 kts 60°
2026-04-22 18:08 36.34539 134.75995 33048 ft 556 kts 60°
2026-04-22 18:08 36.37953 134.84634 33048 ft 556 kts 60°
2026-04-22 18:09 36.41336 134.93205 33049 ft 556 kts 60°
2026-04-22 18:09 36.44736 135.01837 33049 ft 556 kts 60°
2026-04-22 18:10 36.48107 135.10414 33044 ft 555 kts 59°
2026-04-22 18:10 36.51468 135.18986 33045 ft 555 kts 59°
2026-04-22 18:11 36.54853 135.27643 33048 ft 555 kts 59°
2026-04-22 18:11 36.58203 135.36230 33049 ft 555 kts 59°
2026-04-22 18:12 36.61552 135.44844 33048 ft 555 kts 59°
2026-04-22 18:12 36.64349 135.52058 33048 ft 554 kts 59°
2026-04-22 18:13 36.68248 135.62134 33049 ft 555 kts 59°
2026-04-22 18:13 36.71573 135.70756 33045 ft 555 kts 60°
2026-04-22 18:14 36.74921 135.79468 33048 ft 555 kts 60°
2026-04-22 18:14 36.78244 135.88133 33049 ft 555 kts 60°
2026-04-22 18:15 36.81564 135.96814 33049 ft 555 kts 60°
2026-04-22 18:15 36.84859 136.05452 33050 ft 555 kts 60°
2026-04-22 18:16 36.88178 136.14182 33049 ft 555 kts 60°
2026-04-22 18:16 36.91480 136.22888 33048 ft 555 kts 60°
2026-04-22 18:17 36.94777 136.31599 33049 ft 555 kts 60°
2026-04-22 18:17 36.98062 136.40302 33047 ft 556 kts 60°
2026-04-22 18:18 37.01349 136.49037 33047 ft 560 kts 60°
2026-04-22 18:18 37.04674 136.57906 33047 ft 564 kts 60°
2026-04-22 18:19 37.08007 136.66832 33042 ft 568 kts 61°
2026-04-22 18:19 37.11365 136.75832 33046 ft 572 kts 61°
2026-04-22 18:20 37.14733 136.84851 33048 ft 575 kts 61°
2026-04-22 18:20 37.18092 136.93903 33049 ft 575 kts 61°
2026-04-22 18:21 37.21442 137.02968 33049 ft 573 kts 60°
2026-04-22 18:21 37.24802 137.12073 33049 ft 573 kts 60°
2026-04-22 18:22 37.28136 137.21132 33049 ft 574 kts 60°
2026-04-22 18:22 37.31470 137.30226 33049 ft 573 kts 60°
2026-04-22 18:23 37.34780 137.39282 33049 ft 574 kts 60°
2026-04-22 18:23 37.38086 137.48358 33049 ft 574 kts 60°
2026-04-22 18:24 37.43058 137.62056 33049 ft 574 kts 60°
2026-04-22 18:25 37.47980 137.75682 33047 ft 574 kts 61°
2026-04-22 18:25 37.51277 137.84847 33049 ft 574 kts 61°
2026-04-22 18:26 37.56193 137.98561 33049 ft 574 kts 61°
2026-04-22 18:26 37.59457 138.07701 33050 ft 574 kts 61°
2026-04-22 18:27 37.62736 138.16914 33055 ft 574 kts 61°
2026-04-22 18:27 37.65989 138.26086 33063 ft 574 kts 61°
2026-04-22 18:28 37.69215 138.35220 33070 ft 574 kts 61°
2026-04-22 18:28 37.72461 138.44417 33073 ft 573 kts 61°
2026-04-22 18:29 37.75711 138.53619 33075 ft 574 kts 61°
2026-04-22 18:29 37.78943 138.62814 33075 ft 574 kts 61°
2026-04-22 18:30 37.83778 138.76654 33074 ft 574 kts 62°
2026-04-22 18:31 37.86987 138.85884 33076 ft 574 kts 62°
2026-04-22 18:31 37.90175 138.95088 33003 ft 573 kts 62°
2026-04-22 18:32 37.92820 139.02824 32982 ft 574 kts 64°
2026-04-22 18:32 37.95758 139.13998 32976 ft 577 kts 73°
2026-04-22 18:33 37.97283 139.23959 32976 ft 578 kts 80°
2026-04-22 18:33 37.98311 139.34039 32975 ft 578 kts 81°
2026-04-22 18:34 37.99324 139.44141 32975 ft 578 kts 81°
2026-04-22 18:34 38.00370 139.54253 32975 ft 578 kts 81°
2026-04-22 18:35 38.01415 139.64329 32974 ft 578 kts 81°
2026-04-22 18:35 38.02354 139.74446 32973 ft 579 kts 83°
2026-04-22 18:36 38.03135 139.84607 32975 ft 579 kts 83°
2026-04-22 18:36 38.03893 139.94698 32976 ft 579 kts 83°
2026-04-22 18:37 38.04658 140.04837 32975 ft 579 kts 83°
2026-04-22 18:37 38.05298 140.13333 32970 ft 580 kts 83°
2026-04-22 18:38 38.06182 140.25186 32962 ft 580 kts 83°
2026-04-22 18:38 38.06931 140.35368 32956 ft 580 kts 83°
2026-04-22 18:39 38.08036 140.50604 32951 ft 580 kts 83°
2026-04-22 18:39 38.08764 140.60802 32950 ft 580 kts 83°
2026-04-22 18:40 38.09484 140.70996 32947 ft 580 kts 84°
2026-04-22 18:40 38.10195 140.81210 32950 ft 580 kts 84°
2026-04-22 18:41 38.10901 140.91484 32951 ft 580 kts 84°
2026-04-22 18:41 38.11588 141.01648 32951 ft 578 kts 84°
2026-04-22 18:42 38.12267 141.11818 32952 ft 576 kts 83°
2026-04-22 18:42 38.12938 141.21921 32951 ft 576 kts 83°
2026-04-22 18:43 38.13602 141.32074 32951 ft 576 kts 83°
2026-04-22 18:43 38.14253 141.42162 32951 ft 576 kts 83°
2026-04-22 18:44 38.14900 141.52328 32951 ft 576 kts 83°
2026-04-22 18:44 38.15531 141.62396 32951 ft 576 kts 83°
2026-04-22 18:45 38.16157 141.72528 32948 ft 576 kts 84°
2026-04-22 18:45 38.16775 141.82669 32950 ft 576 kts 84°
2026-04-22 18:46 38.17386 141.92850 32950 ft 576 kts 84°
2026-04-22 18:46 38.17986 142.02977 32951 ft 576 kts 84°
2026-04-22 18:47 38.18573 142.13065 32951 ft 576 kts 84°
2026-04-22 18:47 38.19154 142.23180 32951 ft 576 kts 84°
2026-04-22 18:48 38.19727 142.33308 32951 ft 576 kts 84°
2026-04-22 18:48 38.20294 142.43477 32951 ft 576 kts 84°
2026-04-22 18:49 38.20851 142.53632 32951 ft 576 kts 84°
2026-04-22 18:49 38.21395 142.63716 32951 ft 576 kts 84°
2026-04-22 18:50 38.21936 142.73866 32948 ft 576 kts 85°
2026-04-22 18:50 38.22468 142.84062 32950 ft 576 kts 85°
2026-04-22 18:51 38.22988 142.94186 32952 ft 574 kts 85°
2026-04-22 18:51 38.23495 143.04248 32952 ft 572 kts 85°
2026-04-22 18:52 38.23992 143.14285 32951 ft 571 kts 84°
2026-04-22 18:52 38.24486 143.24358 32951 ft 571 kts 84°
2026-04-22 18:53 38.24968 143.34416 32951 ft 570 kts 84°
2026-04-22 18:53 38.25441 143.44478 32951 ft 571 kts 84°
2026-04-22 18:54 38.25908 143.54567 32951 ft 570 kts 84°
2026-04-22 18:54 38.26362 143.64581 32951 ft 571 kts 84°
2026-04-22 18:55 38.26811 143.74637 32948 ft 571 kts 85°
2026-04-22 18:55 38.27251 143.84727 32950 ft 571 kts 85°
2026-04-22 18:56 38.27679 143.94794 32950 ft 571 kts 85°
2026-04-22 18:56 38.28103 144.04890 32951 ft 571 kts 85°
2026-04-22 18:57 38.28517 144.14983 32951 ft 571 kts 85°
2026-04-22 18:57 38.28917 144.24976 32951 ft 571 kts 85°
2026-04-22 18:58 38.29315 144.35065 32951 ft 571 kts 85°
2026-04-22 18:58 38.29702 144.45149 32951 ft 571 kts 85°
2026-04-22 18:59 38.30083 144.55267 32951 ft 571 kts 85°
2026-04-22 18:59 38.30392 144.63658 32951 ft 571 kts 85°
2026-04-22 19:00 38.30815 144.75420 32949 ft 571 kts 86°
2026-04-22 19:00 38.31165 144.85477 32950 ft 571 kts 86°
2026-04-22 19:01 38.31508 144.95586 32951 ft 571 kts 86°
2026-04-22 19:01 38.31842 145.05635 32951 ft 570 kts 86°
2026-04-22 19:02 38.32164 145.15688 32951 ft 568 kts 86°
2026-04-22 19:02 38.32476 145.25690 32951 ft 567 kts 86°
2026-04-22 19:03 38.32781 145.35731 32951 ft 567 kts 86°
2026-04-22 19:03 38.33921 145.45563 32950 ft 561 kts 70°
2026-04-22 19:04 38.36972 145.54518 32951 ft 548 kts 53°
2026-04-22 19:04 38.41636 145.62015 32951 ft 534 kts 37°
2026-04-22 19:05 38.47067 145.68399 32940 ft 531 kts 35°
2026-04-22 19:05 38.52542 145.74724 32922 ft 532 kts 36°
2026-04-22 19:06 38.57984 145.81110 32896 ft 531 kts 36°
2026-04-22 19:07 38.66078 145.90703 32873 ft 531 kts 36°
2026-04-22 19:07 38.71472 145.97125 32869 ft 531 kts 36°
2026-04-22 19:08 38.76867 146.03566 32867 ft 532 kts 36°
2026-04-22 19:08 38.82269 146.10030 32867 ft 532 kts 36°
2026-04-22 19:09 38.87660 146.16492 32867 ft 532 kts 36°
2026-04-22 19:09 38.92151 146.21890 32866 ft 534 kts 36°
2026-04-22 19:10 38.98490 146.29530 32865 ft 540 kts 35°
2026-04-22 19:10 39.03988 146.36163 32864 ft 546 kts 34°
2026-04-22 19:11 39.09537 146.42870 32869 ft 549 kts 34°
2026-04-22 19:11 39.15054 146.49556 32884 ft 549 kts 34°
2026-04-22 19:12 39.20606 146.56302 32891 ft 549 kts 34°
2026-04-22 19:12 39.26150 146.63054 32894 ft 549 kts 34°
2026-04-22 19:13 39.31669 146.69789 32890 ft 549 kts 35°
2026-04-22 19:13 39.37209 146.76567 32893 ft 550 kts 35°
2026-04-22 19:14 39.42759 146.83371 32894 ft 550 kts 35°
2026-04-22 19:14 39.48276 146.90155 32895 ft 550 kts 35°
2026-04-22 19:15 39.52890 146.95850 32894 ft 548 kts 35°
2026-04-22 19:15 39.59319 147.03786 32895 ft 545 kts 35°
2026-04-22 19:16 39.64786 147.10545 32895 ft 543 kts 35°
2026-04-22 19:16 39.70212 147.17276 32894 ft 542 kts 35°
2026-04-22 19:17 39.75627 147.24007 32894 ft 540 kts 35°
2026-04-22 19:17 39.81055 147.30771 32893 ft 540 kts 35°
2026-04-22 19:18 39.86441 147.37494 32894 ft 541 kts 35°
2026-04-22 19:18 39.91878 147.44299 32893 ft 541 kts 35°
2026-04-22 19:19 39.97290 147.51090 32894 ft 542 kts 35°
2026-04-22 19:19 40.02694 147.57889 32893 ft 541 kts 35°
2026-04-22 19:20 40.08092 147.64691 32894 ft 541 kts 35°
2026-04-22 19:20 40.13461 147.71477 32891 ft 541 kts 36°
2026-04-22 19:21 40.18885 147.78343 32892 ft 542 kts 36°
2026-04-22 19:21 40.24285 147.85200 32893 ft 541 kts 36°
2026-04-22 19:22 40.29687 147.92072 32894 ft 542 kts 36°
2026-04-22 19:22 40.35062 147.98932 32894 ft 542 kts 36°
2026-04-22 19:23 40.40464 148.05838 32894 ft 542 kts 36°
2026-04-22 19:23 40.45833 148.12718 32893 ft 542 kts 36°
2026-04-22 19:24 40.51220 148.19636 32893 ft 542 kts 36°
2026-04-22 19:24 40.56624 148.26594 32894 ft 542 kts 36°
2026-04-22 19:25 40.61997 148.33531 32894 ft 542 kts 36°
2026-04-22 19:25 40.67344 148.40451 32893 ft 541 kts 36°
2026-04-22 19:26 40.72689 148.47380 32893 ft 541 kts 36°
2026-04-22 19:26 40.78052 148.54349 32892 ft 542 kts 36°
2026-04-22 19:27 40.83421 148.61351 32893 ft 542 kts 36°
2026-04-22 19:27 40.88764 148.68332 32888 ft 543 kts 37°
2026-04-22 19:28 40.94117 148.75349 32894 ft 543 kts 37°
2026-04-22 19:28 40.99464 148.82364 32893 ft 544 kts 38°
2026-04-22 19:29 41.04845 148.89432 32894 ft 545 kts 40°
2026-04-22 19:29 41.10188 148.96498 32895 ft 542 kts 41°
2026-04-22 19:30 41.13727 149.01173 32894 ft 541 kts 41°
2026-04-22 19:30 41.20824 149.10605 32891 ft 539 kts 41°
2026-04-22 19:31 41.26102 149.17607 32894 ft 539 kts 41°
2026-04-22 19:31 41.31419 149.24701 32894 ft 539 kts 41°
2026-04-22 19:32 41.36676 149.31731 32894 ft 539 kts 41°
2026-04-22 19:32 41.41956 149.38808 32894 ft 539 kts 41°
2026-04-22 19:33 41.47223 149.45891 32894 ft 539 kts 41°
2026-04-22 19:33 41.52491 149.53001 32893 ft 539 kts 41°
2026-04-22 19:34 41.56873 149.58923 32894 ft 539 kts 41°
2026-04-22 19:34 41.63054 149.67287 32891 ft 539 kts 41°
2026-04-22 19:35 41.68305 149.74402 32893 ft 540 kts 41°
2026-04-22 19:35 41.72673 149.80339 32893 ft 540 kts 42°
2026-04-22 19:36 41.78798 149.88687 32893 ft 540 kts 42°
2026-04-22 19:36 41.84047 149.95851 32893 ft 540 kts 42°
2026-04-22 19:37 41.89315 150.03070 32893 ft 540 kts 42°
2026-04-22 19:37 41.94552 150.10268 32892 ft 540 kts 42°
2026-04-22 19:38 41.99790 150.17502 32891 ft 540 kts 42°
2026-04-22 19:38 42.05030 150.24690 32895 ft 539 kts 41°
2026-04-22 19:39 42.10247 150.31882 32894 ft 540 kts 41°
2026-04-22 19:39 42.15498 150.39172 32894 ft 540 kts 41°
2026-04-22 19:40 42.20690 150.46391 32894 ft 539 kts 41°
2026-04-22 19:40 42.25923 150.53682 32894 ft 540 kts 42°
2026-04-22 19:41 42.31111 150.60930 32895 ft 539 kts 41°
2026-04-22 19:41 42.36331 150.68237 32891 ft 540 kts 42°
2026-04-22 19:42 42.41542 150.75552 32892 ft 540 kts 42°
2026-04-22 19:42 42.46753 150.82877 32894 ft 540 kts 42°
2026-04-22 19:43 42.54547 150.93884 32894 ft 540 kts 43°
2026-04-22 19:43 42.59696 151.01205 32893 ft 541 kts 42°
2026-04-22 19:44 42.64897 151.08617 32893 ft 542 kts 41°
2026-04-22 19:44 42.70087 151.16011 32893 ft 543 kts 40°
2026-04-22 19:45 42.75301 151.23444 32894 ft 543 kts 40°
2026-04-22 19:45 42.80510 151.30878 32893 ft 544 kts 40°
2026-04-22 19:46 42.85721 151.38348 32894 ft 544 kts 40°
2026-04-22 19:46 42.90904 151.45810 32893 ft 544 kts 40°
2026-04-22 19:47 42.96093 151.53313 32894 ft 542 kts 40°
2026-04-22 19:47 43.01253 151.60797 32893 ft 542 kts 39°
2026-04-22 19:48 43.06417 151.68283 32889 ft 542 kts 39°
2026-04-22 19:48 43.11581 151.75772 32894 ft 542 kts 40°
2026-04-22 19:49 43.16733 151.83278 32894 ft 542 kts 40°
2026-04-22 19:49 43.21876 151.90793 32894 ft 542 kts 40°
2026-04-22 19:50 43.27024 151.98341 32894 ft 542 kts 40°
2026-04-22 19:50 43.32170 152.05907 32894 ft 542 kts 40°
2026-04-22 19:51 43.37288 152.13451 32894 ft 542 kts 40°
2026-04-22 19:51 43.42433 152.21057 32894 ft 542 kts 40°
2026-04-22 19:52 43.47541 152.28624 32894 ft 542 kts 40°
2026-04-22 19:52 43.52681 152.36264 32894 ft 542 kts 40°
2026-04-22 19:53 43.57775 152.43866 32894 ft 542 kts 40°
2026-04-22 19:53 43.62878 152.51500 32894 ft 542 kts 40°
2026-04-22 19:54 43.67997 152.59177 32894 ft 542 kts 40°
2026-04-22 19:54 43.73083 152.66823 32889 ft 542 kts 40°
2026-04-22 19:55 43.78183 152.74504 32892 ft 542 kts 40°
2026-04-22 19:55 43.83270 152.82185 32894 ft 543 kts 40°
2026-04-22 19:56 43.88353 152.89882 32894 ft 543 kts 40°
2026-04-22 19:56 43.93443 152.97623 32895 ft 542 kts 40°
2026-04-22 19:57 43.98488 153.05313 32894 ft 540 kts 39°
2026-04-22 19:57 44.03539 153.13031 32894 ft 538 kts 39°
2026-04-22 19:58 44.08563 153.20711 32894 ft 537 kts 38°
2026-04-22 19:58 44.13559 153.28371 32895 ft 537 kts 39°
2026-04-22 20:00 44.31059 153.55400 32894 ft 537 kts 39°
2026-04-22 20:01 44.36046 153.63152 32894 ft 537 kts 39°
2026-04-22 20:01 44.41049 153.70947 32891 ft 538 kts 39°
2026-04-22 20:02 44.46034 153.78742 32893 ft 538 kts 39°
2026-04-22 20:02 44.51009 153.86540 32894 ft 538 kts 39°
2026-04-22 20:03 44.55964 153.94327 32902 ft 537 kts 39°
2026-04-22 20:03 44.60923 154.02141 32917 ft 537 kts 39°
2026-04-22 20:04 44.65910 154.10008 32932 ft 537 kts 39°
2026-04-22 20:04 44.70825 154.17793 32941 ft 537 kts 39°
2026-04-22 20:05 44.75772 154.25674 32945 ft 537 kts 39°
2026-04-22 20:05 44.80709 154.33565 32947 ft 537 kts 39°
2026-04-22 20:06 44.85627 154.41434 32948 ft 537 kts 39°
2026-04-22 20:06 44.90525 154.49403 32948 ft 538 kts 40°
2026-04-22 20:07 44.95375 154.57393 32986 ft 540 kts 40°
2026-04-22 20:07 44.97814 154.61424 33452 ft 534 kts 40°
2026-04-22 20:07 45.00208 154.65399 34165 ft 524 kts 40°
2026-04-22 20:07 45.02537 154.69261 34650 ft 519 kts 41°
2026-04-22 20:08 45.04890 154.73157 34956 ft 519 kts 41°
2026-04-22 20:08 45.09565 154.80896 35050 ft 519 kts 41°
2026-04-22 20:09 45.14230 154.88635 35051 ft 516 kts 43°
2026-04-22 20:09 45.18868 154.96353 35050 ft 515 kts 43°
2026-04-22 20:10 45.23493 155.04089 35050 ft 513 kts 44°
2026-04-22 20:10 45.28083 155.11804 35050 ft 512 kts 44°
2026-04-22 20:11 45.32671 155.19542 35050 ft 512 kts 44°
2026-04-22 20:11 45.37254 155.27281 35050 ft 512 kts 44°
2026-04-22 20:12 45.41801 155.34979 35050 ft 512 kts 44°
2026-04-22 20:12 45.45629 155.41476 35049 ft 512 kts 44°
2026-04-22 20:13 45.50934 155.50503 35049 ft 512 kts 44°
2026-04-22 20:13 45.55526 155.58340 35049 ft 512 kts 44°
2026-04-22 20:14 45.60070 155.66118 35047 ft 512 kts 45°
2026-04-22 20:14 45.64625 155.73929 35049 ft 513 kts 45°
2026-04-22 20:15 45.69179 155.81770 35049 ft 513 kts 45°
2026-04-22 20:15 45.73706 155.89597 35050 ft 512 kts 45°
2026-04-22 20:16 45.78239 155.97446 35049 ft 512 kts 45°
2026-04-22 20:16 45.82798 156.05345 35049 ft 513 kts 45°
2026-04-22 20:17 45.87324 156.13214 35049 ft 513 kts 45°
2026-04-22 20:17 45.91853 156.21117 35049 ft 513 kts 45°
2026-04-22 20:18 45.96362 156.29011 35049 ft 513 kts 45°
2026-04-22 20:18 46.00854 156.36897 35049 ft 513 kts 45°
2026-04-22 20:19 46.05379 156.44862 35049 ft 512 kts 45°
2026-04-22 20:19 46.09851 156.52759 35049 ft 512 kts 45°
2026-04-22 20:20 46.14343 156.60722 35050 ft 513 kts 45°
2026-04-22 20:20 46.18853 156.68745 35047 ft 513 kts 46°
2026-04-22 20:21 46.23341 156.76744 35049 ft 513 kts 46°
2026-04-22 20:21 46.27813 156.84734 35049 ft 513 kts 46°
2026-04-22 20:22 46.32294 156.92741 35049 ft 513 kts 46°
2026-04-22 20:22 46.36766 157.00774 35049 ft 513 kts 46°
2026-04-22 20:23 46.41238 157.08826 35049 ft 515 kts 47°
2026-04-22 20:23 46.45747 157.16966 35049 ft 516 kts 47°
2026-04-22 20:24 46.50214 157.25064 35049 ft 517 kts 47°
2026-04-22 20:24 46.54710 157.33247 35049 ft 517 kts 47°
2026-04-22 20:25 46.59160 157.41360 35049 ft 517 kts 47°
2026-04-22 20:25 46.63633 157.49539 35050 ft 517 kts 47°
2026-04-22 20:26 46.68116 157.57761 35049 ft 517 kts 47°
2026-04-22 20:26 46.72582 157.65976 35048 ft 517 kts 48°
2026-04-22 20:27 46.77037 157.74191 35049 ft 517 kts 48°
2026-04-22 20:27 46.81491 157.82431 35050 ft 517 kts 48°
2026-04-22 20:28 46.85922 157.90651 35049 ft 518 kts 48°
2026-04-22 20:28 46.90358 157.98906 35051 ft 517 kts 48°
2026-04-22 20:29 46.94778 158.07156 35051 ft 512 kts 49°
2026-04-22 20:29 46.99116 158.15274 35051 ft 507 kts 49°
2026-04-22 20:30 47.03451 158.23413 35051 ft 503 kts 49°
2026-04-22 20:30 47.07719 158.31450 35049 ft 501 kts 49°
2026-04-22 20:31 47.11972 158.39484 35050 ft 501 kts 49°
2026-04-22 20:31 47.16238 158.47575 35050 ft 501 kts 49°
2026-04-22 20:32 47.20484 158.55666 35050 ft 501 kts 49°
2026-04-22 20:32 47.24727 158.63760 35050 ft 500 kts 49°
2026-04-22 20:33 47.28974 158.71878 35048 ft 501 kts 50°
2026-04-22 20:33 47.33210 158.79993 35049 ft 501 kts 50°
2026-04-22 20:34 47.37450 158.88139 35049 ft 501 kts 50°
2026-04-22 20:34 47.41685 158.96310 35048 ft 503 kts 50°
2026-04-22 20:35 47.45939 159.04533 35048 ft 508 kts 50°
2026-04-22 20:35 47.50241 159.12872 35047 ft 513 kts 50°
2026-04-22 20:36 47.54581 159.21321 35050 ft 515 kts 50°
2026-04-22 20:36 47.58891 159.29726 35049 ft 514 kts 50°
2026-04-22 20:37 47.63205 159.38155 35049 ft 515 kts 50°
2026-04-22 20:37 47.67515 159.46626 35049 ft 514 kts 50°
2026-04-22 20:38 47.71811 159.55092 35050 ft 515 kts 50°
2026-04-22 20:38 47.76106 159.63580 35049 ft 514 kts 50°
2026-04-22 20:39 47.80401 159.72092 35048 ft 515 kts 51°
2026-04-22 20:39 47.84702 159.80643 35049 ft 515 kts 51°
2026-04-22 20:40 47.88976 159.89172 35049 ft 515 kts 51°
2026-04-22 20:40 47.92522 159.96265 35049 ft 515 kts 51°
2026-04-22 20:41 47.97504 160.06264 35049 ft 515 kts 51°
2026-04-22 20:41 48.01778 160.14868 35048 ft 515 kts 51°
2026-04-22 20:42 48.06009 160.23418 35049 ft 515 kts 51°
2026-04-22 20:42 48.10268 160.32042 35049 ft 515 kts 51°
2026-04-22 20:43 48.14508 160.40651 35050 ft 515 kts 51°
2026-04-22 20:43 48.18730 160.49280 35050 ft 515 kts 51°
2026-04-22 20:44 48.22963 160.57964 35050 ft 515 kts 51°
2026-04-22 20:44 48.27206 160.66687 35048 ft 515 kts 51°
2026-04-22 20:45 48.31340 160.75426 35049 ft 516 kts 53°
2026-04-22 20:45 48.35419 160.84305 35049 ft 516 kts 53°
2026-04-22 20:46 48.41542 160.97672 35049 ft 521 kts 53°
2026-04-22 20:46 48.45660 161.06682 35049 ft 525 kts 53°
2026-04-22 20:47 48.49793 161.15742 35050 ft 525 kts 53°
2026-04-22 20:47 48.53904 161.24774 35048 ft 525 kts 53°
2026-04-22 20:48 48.58041 161.33916 35049 ft 525 kts 53°
2026-04-22 20:48 48.62154 161.43027 35047 ft 525 kts 53°
2026-04-22 20:49 48.66258 161.52151 35050 ft 525 kts 53°
2026-04-22 20:49 48.70349 161.61289 35048 ft 525 kts 53°
2026-04-22 20:50 48.74416 161.70396 35047 ft 525 kts 54°
2026-04-22 20:50 48.78522 161.79627 35049 ft 525 kts 54°
2026-04-22 20:51 48.82594 161.88812 35048 ft 525 kts 54°
2026-04-22 20:51 48.86659 161.98001 35049 ft 525 kts 54°
2026-04-22 20:52 48.90701 162.07179 35049 ft 525 kts 53°
2026-04-22 20:52 48.94762 162.16437 35050 ft 525 kts 53°
2026-04-22 20:53 48.98799 162.25668 35050 ft 524 kts 54°
2026-04-22 20:53 49.02803 162.34860 35049 ft 521 kts 54°
2026-04-22 20:54 49.06800 162.44060 35050 ft 519 kts 53°
2026-04-22 20:54 49.10770 162.53227 35050 ft 515 kts 53°
2026-04-22 20:55 49.14701 162.62331 35050 ft 513 kts 53°
2026-04-22 20:55 49.18606 162.71405 35048 ft 513 kts 54°
2026-04-22 20:56 49.22535 162.80569 35047 ft 513 kts 54°
2026-04-22 20:56 49.26448 162.89729 35049 ft 514 kts 54°
2026-04-22 20:57 49.30340 162.98881 35048 ft 514 kts 54°
2026-04-22 20:57 49.34226 163.08054 35049 ft 515 kts 54°
2026-04-22 20:58 49.38119 163.17264 35048 ft 517 kts 53°
2026-04-22 20:58 49.42024 163.26526 35049 ft 518 kts 54°
2026-04-22 20:59 49.45945 163.35863 35050 ft 519 kts 54°
2026-04-22 20:59 49.49846 163.45192 35048 ft 519 kts 53°
2026-04-22 21:00 49.53723 163.54494 35050 ft 520 kts 54°
2026-04-22 21:00 49.57623 163.63879 35049 ft 519 kts 54°
2026-04-22 21:01 49.61494 163.73225 35049 ft 519 kts 54°
2026-04-22 21:01 49.65367 163.82610 35049 ft 519 kts 54°
2026-04-22 21:02 49.69228 163.92009 35048 ft 519 kts 54°
2026-04-22 21:02 49.73079 164.01421 35048 ft 519 kts 54°
2026-04-22 21:03 49.76918 164.10825 35048 ft 520 kts 54°
2026-04-22 21:03 49.80780 164.20323 35049 ft 519 kts 54°
2026-04-22 21:04 49.84608 164.29768 35050 ft 519 kts 54°
2026-04-22 21:04 49.88434 164.39244 35048 ft 518 kts 54°
2026-04-22 21:05 49.92239 164.48708 35049 ft 519 kts 54°
2026-04-22 21:05 49.96064 164.58260 35047 ft 518 kts 54°
2026-04-22 21:06 49.99848 164.67740 35044 ft 518 kts 55°
2026-04-22 21:06 50.03657 164.77290 35046 ft 520 kts 55°
2026-04-22 21:07 50.07446 164.86856 35050 ft 519 kts 55°
2026-04-22 21:07 50.11212 164.96411 35048 ft 520 kts 56°
2026-04-22 21:08 50.15015 165.06096 35048 ft 522 kts 55°
2026-04-22 21:08 50.18779 165.15698 35049 ft 522 kts 55°
2026-04-22 21:09 50.22529 165.25394 35049 ft 523 kts 55°
2026-04-22 21:09 50.26262 165.35124 35049 ft 523 kts 55°
2026-04-22 21:10 50.30021 165.44969 35049 ft 523 kts 55°
2026-04-22 21:10 50.33735 165.54732 35050 ft 523 kts 55°
2026-04-22 21:11 50.37447 165.64517 35049 ft 523 kts 55°
2026-04-22 21:11 50.41135 165.74274 35049 ft 524 kts 56°
2026-04-22 21:12 50.44846 165.84137 35050 ft 524 kts 56°
2026-04-22 21:12 50.48529 165.93959 35050 ft 524 kts 56°
2026-04-22 21:13 50.52208 166.03813 35049 ft 523 kts 56°
2026-04-22 21:13 50.55893 166.13718 35044 ft 523 kts 56°
2026-04-22 21:14 50.59539 166.23560 34974 ft 523 kts 56°
2026-04-22 21:14 50.63187 166.33443 34828 ft 523 kts 56°
2026-04-22 21:15 50.66875 166.43475 34671 ft 525 kts 56°
2026-04-22 21:15 50.70525 166.53439 34578 ft 526 kts 56°
2026-04-22 21:16 50.74179 166.63455 34540 ft 526 kts 56°
2026-04-22 21:16 50.77827 166.73489 34523 ft 527 kts 57°
2026-04-22 21:17 50.81444 166.83487 34518 ft 526 kts 57°
2026-04-22 21:17 50.85098 166.93630 34515 ft 528 kts 57°
2026-04-22 21:18 50.88718 167.03719 34515 ft 529 kts 56°
2026-04-22 21:18 50.92335 167.13835 34514 ft 530 kts 56°
2026-04-22 21:19 50.95995 167.24103 34513 ft 532 kts 56°
2026-04-22 21:19 50.99625 167.34328 34513 ft 534 kts 55°
2026-04-22 21:20 51.03212 167.44478 34512 ft 536 kts 54°
2026-04-22 21:20 51.06865 167.54845 34515 ft 537 kts 55°
2026-04-22 21:21 51.10504 167.65219 34513 ft 537 kts 56°
2026-04-22 21:21 51.14152 167.75661 34513 ft 538 kts 56°
2026-04-22 21:22 51.17768 167.86063 34514 ft 538 kts 56°
2026-04-22 21:22 51.21408 167.96585 34515 ft 537 kts 55°
2026-04-22 21:23 51.25007 168.07027 34514 ft 538 kts 56°
2026-04-22 21:23 51.28602 168.17482 34515 ft 539 kts 56°
2026-04-22 21:24 51.32206 168.28018 34515 ft 538 kts 56°
2026-04-22 21:24 51.35776 168.38498 34515 ft 539 kts 56°
2026-04-22 21:25 51.39346 168.49036 34516 ft 538 kts 56°
2026-04-22 21:25 51.42907 168.59576 34515 ft 538 kts 56°
2026-04-22 21:26 51.46480 168.70201 34512 ft 539 kts 56°
2026-04-22 21:26 51.50026 168.80788 34515 ft 539 kts 56°
2026-04-22 21:27 51.53552 168.91374 34515 ft 538 kts 56°
2026-04-22 21:27 51.57071 169.01982 34515 ft 537 kts 56°
2026-04-22 21:28 51.60580 169.12587 34514 ft 538 kts 56°
2026-04-22 21:28 51.64098 169.23279 34515 ft 537 kts 56°
2026-04-22 21:29 51.67582 169.33900 34515 ft 537 kts 56°
2026-04-22 21:29 51.71063 169.44565 34514 ft 539 kts 56°
2026-04-22 21:30 51.74546 169.55292 34514 ft 539 kts 56°
2026-04-22 21:30 51.78018 169.66023 34514 ft 539 kts 57°
2026-04-22 21:31 51.81475 169.76756 34515 ft 539 kts 57°
2026-04-22 21:31 51.84921 169.87526 34515 ft 539 kts 57°
2026-04-22 21:32 51.88363 169.98311 34516 ft 539 kts 57°
2026-04-22 21:32 51.91788 170.09079 34515 ft 539 kts 57°
2026-04-22 21:33 51.95224 170.19945 34515 ft 539 kts 57°
2026-04-22 21:33 51.98627 170.30757 34514 ft 539 kts 57°
2026-04-22 21:34 52.02016 170.41566 34514 ft 539 kts 57°
2026-04-22 21:34 52.05412 170.52457 34514 ft 539 kts 57°
2026-04-22 21:35 52.08784 170.63309 34512 ft 538 kts 56°
2026-04-22 21:35 52.12574 170.73779 34515 ft 533 kts 50°
2026-04-22 21:36 52.17003 170.83344 34514 ft 525 kts 43°
2026-04-22 21:36 52.21781 170.92348 34515 ft 525 kts 41°
2026-04-22 21:37 52.26586 171.01356 34515 ft 524 kts 41°
2026-04-22 21:37 52.31340 171.10368 34516 ft 524 kts 41°
2026-04-22 21:38 52.36073 171.19405 34516 ft 522 kts 41°
2026-04-22 21:38 52.40757 171.28378 34516 ft 522 kts 41°
2026-04-22 21:39 52.45468 171.37427 34516 ft 523 kts 41°
2026-04-22 21:39 52.50180 171.46529 34516 ft 522 kts 41°
2026-04-22 21:40 52.54872 171.55614 34515 ft 523 kts 41°
2026-04-22 21:40 52.59570 171.64749 34515 ft 522 kts 41°
2026-04-22 21:41 52.64259 171.73900 34513 ft 522 kts 42°
2026-04-22 21:41 52.68929 171.83046 34515 ft 523 kts 42°
2026-04-22 21:42 52.73624 171.92278 34514 ft 522 kts 42°
2026-04-22 21:42 52.78281 172.01466 34515 ft 523 kts 42°
2026-04-22 21:43 52.82951 172.10710 34515 ft 523 kts 42°
2026-04-22 21:43 52.87591 172.19934 34515 ft 523 kts 42°
2026-04-22 21:44 52.92268 172.29269 34515 ft 522 kts 42°
2026-04-22 21:44 52.96929 172.38596 34513 ft 524 kts 42°
2026-04-22 21:45 53.01592 172.47972 34515 ft 524 kts 42°
2026-04-22 21:45 53.06244 172.57359 34514 ft 525 kts 42°
2026-04-22 21:46 53.10901 172.66795 34510 ft 525 kts 43°
2026-04-22 21:46 53.15551 172.76241 34513 ft 529 kts 43°
2026-04-22 21:47 53.20233 172.85803 34515 ft 526 kts 43°
2026-04-22 21:47 53.24853 172.95288 34517 ft 520 kts 44°
2026-04-22 21:48 53.29402 173.04648 34516 ft 517 kts 44°
2026-04-22 21:48 53.33932 173.13998 34515 ft 515 kts 44°
2026-04-22 21:49 53.38467 173.23395 34516 ft 515 kts 44°
2026-04-22 21:49 53.42983 173.32793 34513 ft 515 kts 44°
2026-04-22 21:50 53.47476 173.42184 34514 ft 515 kts 44°
2026-04-22 21:50 53.51975 173.51639 34515 ft 517 kts 45°
2026-04-22 21:51 53.56145 173.61600 34514 ft 521 kts 50°
2026-04-22 21:52 53.62015 173.77043 34516 ft 522 kts 51°
2026-04-22 21:52 53.65907 173.87369 34514 ft 522 kts 51°
2026-04-22 21:53 53.69807 173.97708 34515 ft 520 kts 51°
2026-04-22 21:53 53.73680 174.08015 34514 ft 522 kts 52°
2026-04-22 21:54 53.77557 174.18407 34515 ft 522 kts 51°
2026-04-22 21:54 53.81403 174.28754 34515 ft 521 kts 51°
2026-04-22 21:55 53.85266 174.39159 34513 ft 521 kts 51°
2026-04-22 21:55 53.89127 174.49591 34513 ft 522 kts 51°
2026-04-22 21:56 53.92978 174.60045 34512 ft 521 kts 52°
2026-04-22 21:56 53.94537 174.64302 34515 ft 521 kts 51°
2026-04-22 21:57 53.98325 174.74654 34514 ft 522 kts 52°
2026-04-22 21:57 54.02151 174.85165 34516 ft 522 kts 52°
2026-04-22 21:58 54.05940 174.95616 34514 ft 522 kts 52°
2026-04-22 21:58 54.09753 175.06175 34517 ft 519 kts 52°
2026-04-22 21:59 54.13511 175.16625 34518 ft 514 kts 53°
2026-04-22 21:59 54.17222 175.26990 34516 ft 511 kts 53°
2026-04-22 22:00 54.20926 175.37381 34515 ft 512 kts 53°
2026-04-22 22:00 54.24630 175.47813 34515 ft 512 kts 53°
2026-04-22 22:01 54.28307 175.58217 34515 ft 512 kts 53°
2026-04-22 22:01 54.31995 175.68700 34512 ft 512 kts 54°
2026-04-22 22:02 54.35659 175.79147 34514 ft 512 kts 54°
2026-04-22 22:02 54.39310 175.89609 34515 ft 512 kts 54°
2026-04-22 22:03 54.42965 176.00124 34515 ft 513 kts 54°
2026-04-22 22:03 54.46608 176.10651 34515 ft 513 kts 54°
2026-04-22 22:04 54.50264 176.21257 34515 ft 513 kts 54°
2026-04-22 22:04 54.53885 176.31805 34515 ft 512 kts 54°
2026-04-22 22:05 54.57496 176.42375 34515 ft 513 kts 54°
2026-04-22 22:05 54.61113 176.53008 34515 ft 513 kts 54°
2026-04-22 22:06 54.64698 176.63592 34514 ft 512 kts 54°
2026-04-22 22:06 54.68294 176.74255 34513 ft 513 kts 55°
2026-04-22 22:07 54.71879 176.84938 34514 ft 513 kts 55°
2026-04-22 22:07 54.75451 176.95615 34516 ft 512 kts 55°
2026-04-22 22:08 54.78995 177.06253 34517 ft 507 kts 56°
2026-04-22 22:08 54.82483 177.16772 34516 ft 504 kts 56°
2026-04-22 22:09 54.85948 177.27292 34514 ft 503 kts 56°
2026-04-22 22:09 54.89437 177.37912 34514 ft 503 kts 57°
2026-04-22 22:10 54.92877 177.48416 34515 ft 502 kts 57°
2026-04-22 22:10 54.96327 177.59000 34516 ft 500 kts 58°
2026-04-22 22:11 54.99732 177.69505 34514 ft 497 kts 59°
2026-04-22 22:11 55.03116 177.79991 34516 ft 494 kts 60°
2026-04-22 22:12 55.06462 177.90416 34515 ft 491 kts 60°
2026-04-22 22:12 55.09777 178.00794 34515 ft 491 kts 60°
2026-04-22 22:13 55.13105 178.11250 34514 ft 491 kts 60°
2026-04-22 22:13 55.16422 178.21712 34514 ft 491 kts 60°
2026-04-22 22:14 55.19738 178.32213 34514 ft 491 kts 60°
2026-04-22 22:14 55.23016 178.42647 34515 ft 491 kts 60°
2026-04-22 22:15 55.26319 178.53214 34515 ft 491 kts 60°
2026-04-22 22:15 55.29591 178.63730 34641 ft 493 kts 60°
2026-04-22 22:15 55.31242 178.69055 34778 ft 492 kts 61°
2026-04-22 22:16 55.32865 178.74291 34893 ft 491 kts 61°
2026-04-22 22:16 55.36132 178.84761 35043 ft 489 kts 60°
2026-04-22 22:17 55.39399 178.95296 35119 ft 487 kts 60°
2026-04-22 22:17 55.42605 179.05688 35156 ft 484 kts 60°
2026-04-22 22:18 55.45804 179.16112 35171 ft 483 kts 60°
2026-04-22 22:18 55.48983 179.26515 35179 ft 483 kts 60°
2026-04-22 22:19 55.52168 179.36989 35183 ft 482 kts 60°
2026-04-22 22:19 55.55313 179.47388 35184 ft 483 kts 60°
2026-04-22 22:20 55.58486 179.57919 35185 ft 482 kts 60°
2026-04-22 22:20 55.61614 179.68349 35184 ft 483 kts 61°
2026-04-22 22:21 55.64764 179.78897 35185 ft 482 kts 61°
2026-04-22 22:21 55.67880 179.89383 35185 ft 483 kts 61°
2026-04-22 22:22 55.71012 179.99971 35184 ft 483 kts 61°
2026-04-22 22:22 55.74078 -179.89627 34883 ft 473 kts 61°
2026-04-22 22:22 55.75602 -179.84435 34671 ft 475 kts 61°
2026-04-22 22:23 55.77128 -179.79224 34506 ft 477 kts 61°
2026-04-22 22:23 55.78656 -179.73997 34383 ft 478 kts 61°
2026-04-22 22:23 55.80191 -179.68733 34296 ft 479 kts 61°
2026-04-22 22:24 55.83255 -179.58191 34190 ft 480 kts 61°
2026-04-22 22:24 55.86314 -179.47620 34144 ft 480 kts 62°
2026-04-22 22:25 55.89373 -179.37001 34127 ft 481 kts 62°
2026-04-22 22:25 55.92417 -179.26387 34120 ft 481 kts 62°
2026-04-22 22:26 55.95455 -179.15744 34118 ft 481 kts 62°
2026-04-22 22:26 55.98465 -179.05150 34116 ft 481 kts 62°
2026-04-22 22:27 56.01484 -178.94478 34118 ft 481 kts 62°
2026-04-22 22:27 56.04492 -178.83795 34117 ft 481 kts 62°
2026-04-22 22:28 56.07501 -178.73056 34117 ft 481 kts 62°
2026-04-22 22:28 56.10491 -178.62338 34117 ft 481 kts 62°
2026-04-22 22:29 56.13475 -178.51592 34117 ft 481 kts 62°
2026-04-22 22:29 56.16449 -178.40826 34116 ft 481 kts 63°
2026-04-22 22:30 56.19422 -178.30025 34212 ft 484 kts 63°
2026-04-22 22:30 56.20890 -178.24670 34591 ft 482 kts 63°
2026-04-22 22:30 56.22365 -178.19276 35016 ft 479 kts 63°
2026-04-22 22:30 56.23833 -178.13893 35360 ft 477 kts 63°
2026-04-22 22:31 56.25296 -178.08514 35643 ft 477 kts 63°
2026-04-22 22:31 56.26751 -178.03157 35900 ft 477 kts 63°
2026-04-22 22:31 56.28203 -177.97801 36012 ft 477 kts 63°
2026-04-22 22:32 56.31110 -177.87035 36017 ft 477 kts 63°
2026-04-22 22:32 56.33992 -177.76300 36019 ft 477 kts 63°
2026-04-22 22:33 56.36870 -177.65536 36019 ft 477 kts 63°
2026-04-22 22:33 56.39748 -177.54719 36020 ft 477 kts 63°
2026-04-22 22:34 56.42624 -177.43861 36020 ft 477 kts 63°
2026-04-22 22:34 56.45475 -177.33044 36019 ft 477 kts 64°
2026-04-22 22:35 56.48320 -177.22195 36020 ft 477 kts 64°
2026-04-22 22:35 56.51152 -177.11348 36019 ft 477 kts 64°
2026-04-22 22:36 56.53971 -177.00490 36020 ft 475 kts 63°
2026-04-22 22:36 56.56764 -176.89690 36021 ft 471 kts 64°
2026-04-22 22:37 56.59530 -176.78938 36019 ft 469 kts 64°
2026-04-22 22:37 56.62285 -176.68172 36020 ft 468 kts 64°
2026-04-22 22:38 56.65020 -176.57436 36019 ft 468 kts 64°
2026-04-22 22:38 56.67748 -176.46670 36018 ft 468 kts 64°
2026-04-22 22:39 56.70461 -176.35912 36019 ft 468 kts 64°
2026-04-22 22:39 56.73185 -176.25053 36020 ft 468 kts 64°
2026-04-22 22:40 56.75879 -176.14259 36019 ft 468 kts 64°
2026-04-22 22:40 56.78557 -176.03467 36022 ft 468 kts 64°
2026-04-22 22:41 56.81237 -175.92606 36036 ft 468 kts 64°
2026-04-22 22:41 56.83901 -175.81796 36050 ft 469 kts 64°
2026-04-22 22:42 56.86566 -175.70923 36059 ft 468 kts 64°
2026-04-22 22:42 56.89220 -175.60013 36063 ft 468 kts 64°
2026-04-22 22:43 56.91853 -175.49120 36064 ft 468 kts 64°
2026-04-22 22:43 56.94472 -175.38223 36063 ft 468 kts 64°
2026-04-22 22:44 56.97081 -175.27316 36065 ft 468 kts 65°
2026-04-22 22:44 56.99696 -175.16334 36074 ft 467 kts 66°
2026-04-22 22:45 57.02277 -175.05446 36115 ft 465 kts 66°
2026-04-22 22:45 57.04836 -174.94589 36175 ft 462 kts 66°
2026-04-22 22:46 57.07390 -174.83681 36225 ft 463 kts 67°
2026-04-22 22:46 57.09917 -174.72833 36248 ft 463 kts 67°
2026-04-22 22:47 57.12454 -174.61893 36257 ft 465 kts 67°
2026-04-22 22:47 57.14976 -174.50955 36263 ft 465 kts 67°
2026-04-22 22:48 57.17495 -174.39977 36265 ft 465 kts 67°
2026-04-22 22:48 57.20015 -174.28935 36263 ft 465 kts 68°
2026-04-22 22:49 57.22523 -174.17886 36263 ft 465 kts 68°
2026-04-22 22:49 57.25020 -174.06827 36263 ft 465 kts 68°
2026-04-22 22:50 57.27485 -173.95845 36264 ft 465 kts 68°
2026-04-22 22:50 57.29964 -173.84734 36262 ft 465 kts 68°
2026-04-22 22:51 57.32426 -173.73634 36262 ft 465 kts 68°
2026-04-22 22:51 57.34893 -173.62625 36262 ft 465 kts 68°
2026-04-22 22:52 57.37424 -173.51567 36261 ft 465 kts 67°
2026-04-22 22:52 57.39940 -173.40485 36261 ft 465 kts 67°
2026-04-22 22:53 57.42440 -173.29384 36263 ft 465 kts 68°
2026-04-22 22:53 57.44908 -173.18349 36263 ft 465 kts 68°
2026-04-22 22:54 57.47383 -173.07224 36263 ft 465 kts 68°
2026-04-22 22:54 57.49841 -172.96117 36264 ft 465 kts 68°
2026-04-22 22:55 57.52291 -172.84988 36263 ft 466 kts 69°
2026-04-22 22:55 57.55972 -172.68149 36264 ft 466 kts 69°
2026-04-22 22:56 57.58395 -172.56979 36263 ft 467 kts 69°
2026-04-22 22:56 57.60824 -172.45728 36264 ft 467 kts 69°
2026-04-22 22:57 57.63240 -172.34473 36263 ft 466 kts 70°
2026-04-22 22:57 57.65653 -172.23184 36264 ft 466 kts 69°
2026-04-22 22:58 57.68042 -172.11960 36263 ft 467 kts 70°
2026-04-22 22:58 57.70437 -172.00636 36264 ft 467 kts 70°
2026-04-22 22:59 57.72804 -171.89340 36263 ft 466 kts 70°
2026-04-22 22:59 57.75171 -171.78001 36264 ft 466 kts 70°
2026-04-22 23:00 57.77513 -171.66736 36263 ft 466 kts 70°
2026-04-22 23:00 57.79854 -171.55408 36263 ft 466 kts 70°
2026-04-22 23:01 57.82193 -171.44016 36264 ft 466 kts 70°
2026-04-22 23:01 57.84505 -171.32684 36261 ft 466 kts 70°
2026-04-22 23:02 57.86818 -171.21286 36258 ft 466 kts 70°
2026-04-22 23:02 57.89110 -171.09918 36257 ft 466 kts 70°
2026-04-22 23:03 57.91402 -170.98485 36257 ft 466 kts 71°
2026-04-22 23:03 57.93681 -170.87025 36256 ft 467 kts 71°
2026-04-22 23:04 57.95949 -170.75583 36255 ft 468 kts 70°
2026-04-22 23:04 57.98393 -170.64195 36256 ft 468 kts 69°
2026-04-22 23:05 58.00869 -170.52818 36255 ft 468 kts 69°
2026-04-22 23:05 58.03323 -170.41406 36256 ft 468 kts 69°
2026-04-22 23:06 58.05751 -170.30006 36256 ft 468 kts 70°
2026-04-22 23:06 58.08170 -170.18568 36257 ft 468 kts 70°
2026-04-22 23:07 58.10589 -170.07063 36256 ft 468 kts 70°
2026-04-22 23:07 58.12716 -169.95392 36251 ft 468 kts 69°
2026-04-22 23:08 58.14229 -169.89938 36253 ft 472 kts 58°
2026-04-22 23:08 58.16212 -169.84926 36260 ft 473 kts 57°
2026-04-22 23:08 58.19180 -169.73854 36259 ft 469 kts 69°
2026-04-22 23:09 58.21663 -169.62328 36257 ft 468 kts 70°
2026-04-22 23:09 58.24087 -169.50900 36256 ft 468 kts 70°
2026-04-22 23:10 58.26560 -169.39203 36257 ft 468 kts 70°
2026-04-22 23:10 58.28950 -169.27568 36257 ft 468 kts 72°
2026-04-22 23:11 58.31068 -169.15938 36256 ft 468 kts 73°
2026-04-22 23:11 58.33177 -169.04181 36255 ft 470 kts 73°
2026-04-22 23:12 58.35345 -168.92360 36255 ft 474 kts 73°
2026-04-22 23:12 58.37560 -168.80484 36256 ft 475 kts 72°
2026-04-22 23:13 58.39774 -168.68686 36257 ft 475 kts 72°
2026-04-22 23:13 58.42007 -168.56782 36257 ft 475 kts 72°
2026-04-22 23:14 58.44220 -168.44936 36256 ft 475 kts 72°
2026-04-22 23:14 58.46427 -168.33041 36256 ft 475 kts 73°
2026-04-22 23:15 58.48622 -168.21133 36254 ft 475 kts 73°
2026-04-22 23:15 58.50822 -168.09142 36276 ft 475 kts 73°
2026-04-22 23:16 58.52993 -167.97229 36358 ft 475 kts 73°
2026-04-22 23:16 58.55160 -167.85249 36466 ft 475 kts 73°
2026-04-22 23:17 58.57306 -167.73317 36543 ft 474 kts 73°
2026-04-22 23:17 58.59442 -167.61362 36579 ft 473 kts 73°
2026-04-22 23:18 58.61562 -167.49417 36594 ft 473 kts 73°
2026-04-22 23:18 58.63680 -167.37401 36600 ft 473 kts 73°
2026-04-22 23:19 58.65777 -167.25413 36602 ft 473 kts 74°
2026-04-22 23:19 58.67858 -167.13423 36602 ft 473 kts 74°
2026-04-22 23:20 58.69926 -167.01433 36603 ft 473 kts 74°
2026-04-22 23:20 58.72066 -166.89455 36602 ft 474 kts 72°
2026-04-22 23:21 58.74265 -166.77418 36602 ft 476 kts 72°
2026-04-22 23:21 58.76439 -166.65392 36603 ft 476 kts 72°
2026-04-22 23:22 58.78592 -166.53348 36602 ft 476 kts 73°
2026-04-22 23:22 58.80737 -166.41248 36602 ft 476 kts 72°
2026-04-22 23:23 58.82879 -166.29080 36602 ft 476 kts 73°
2026-04-22 23:23 58.84993 -166.16974 36603 ft 476 kts 73°
2026-04-22 23:24 58.87095 -166.04808 36603 ft 476 kts 74°
2026-04-22 23:24 58.89187 -165.92677 36603 ft 476 kts 73°
2026-04-22 23:25 58.91309 -165.80484 36603 ft 475 kts 73°
2026-04-22 23:25 58.93397 -165.68393 36603 ft 475 kts 73°
2026-04-22 23:26 58.95476 -165.56235 36603 ft 474 kts 73°
2026-04-22 23:26 58.97528 -165.44142 36609 ft 473 kts 73°
2026-04-22 23:27 58.99572 -165.32016 36629 ft 473 kts 74°
2026-04-22 23:27 59.01607 -165.19853 36647 ft 472 kts 74°
2026-04-22 23:28 59.03616 -165.07764 36658 ft 471 kts 75°
2026-04-22 23:28 59.05629 -164.95583 36665 ft 472 kts 75°
2026-04-22 23:29 59.07616 -164.83462 36667 ft 473 kts 75°
2026-04-22 23:29 59.09607 -164.71216 36668 ft 474 kts 75°
2026-04-22 23:30 59.11585 -164.58969 36668 ft 474 kts 75°
2026-04-22 23:30 59.13558 -164.46677 36669 ft 474 kts 75°
2026-04-22 23:31 59.15509 -164.34447 36670 ft 474 kts 76°
2026-04-22 23:31 59.17464 -164.22104 36669 ft 473 kts 76°
2026-04-22 23:32 59.19390 -164.09850 36668 ft 473 kts 76°
2026-04-22 23:32 59.21314 -163.97523 36669 ft 473 kts 76°
2026-04-22 23:33 59.23214 -163.85260 36669 ft 473 kts 76°
2026-04-22 23:33 59.25123 -163.72845 36669 ft 473 kts 76°
2026-04-22 23:34 59.27000 -163.60574 36670 ft 473 kts 76°
2026-04-22 23:34 59.28871 -163.48235 36669 ft 473 kts 76°
2026-04-22 23:35 59.30732 -163.35841 36669 ft 473 kts 76°
2026-04-22 23:35 59.32577 -163.23485 36669 ft 472 kts 77°
2026-04-22 23:36 59.34409 -163.11139 36668 ft 474 kts 77°
2026-04-22 23:36 59.36254 -162.98630 36678 ft 479 kts 78°
2026-04-22 23:37 59.38100 -162.85956 36698 ft 483 kts 78°
2026-04-22 23:37 59.39930 -162.73283 36717 ft 483 kts 78°
2026-04-22 23:38 59.41756 -162.60588 36734 ft 483 kts 78°
2026-04-22 23:38 59.43578 -162.47783 36743 ft 483 kts 78°
2026-04-22 23:39 59.45379 -162.35042 36746 ft 483 kts 77°
2026-04-22 23:39 59.47439 -162.22365 36748 ft 485 kts 76°
2026-04-22 23:40 59.49570 -162.09847 36747 ft 484 kts 76°
2026-04-22 23:40 59.51702 -161.97197 36746 ft 484 kts 76°
2026-04-22 23:41 59.53799 -161.84613 36746 ft 484 kts 76°
2026-04-22 23:41 59.55898 -161.71918 36745 ft 484 kts 76°
2026-04-22 23:42 59.57967 -161.59309 36745 ft 485 kts 76°
2026-04-22 23:42 59.60043 -161.46564 36745 ft 484 kts 76°
2026-04-22 23:43 59.62101 -161.33836 36745 ft 485 kts 77°
2026-04-22 23:43 59.64152 -161.21071 36746 ft 484 kts 77°
2026-04-22 23:44 59.66206 -161.08185 36749 ft 484 kts 77°
2026-04-22 23:44 59.68215 -160.95482 36752 ft 485 kts 77°
2026-04-22 23:45 59.70231 -160.82614 36774 ft 489 kts 77°
2026-04-22 23:45 59.72237 -160.69693 36816 ft 491 kts 77°
2026-04-22 23:46 59.74239 -160.56734 36847 ft 492 kts 77°
2026-04-22 23:46 59.76236 -160.43723 36862 ft 492 kts 77°
2026-04-22 23:47 59.78217 -160.30716 36870 ft 491 kts 78°
2026-04-22 23:47 59.80184 -160.17709 36880 ft 490 kts 78°
2026-04-22 23:48 59.82130 -160.04732 36902 ft 490 kts 78°
2026-04-22 23:48 59.84067 -159.91725 36917 ft 490 kts 78°
2026-04-22 23:49 59.85993 -159.78674 36923 ft 490 kts 78°
2026-04-22 23:49 59.87901 -159.65654 36914 ft 490 kts 78°
2026-04-22 23:50 59.89793 -159.52634 36884 ft 490 kts 78°
2026-04-22 23:50 59.91672 -159.39609 36861 ft 490 kts 78°
2026-04-22 23:51 59.93549 -159.26494 36846 ft 490 kts 79°
2026-04-22 23:51 59.95416 -159.13335 36842 ft 490 kts 79°
2026-04-22 23:52 59.97266 -159.00198 36839 ft 491 kts 79°
2026-04-22 23:52 59.99115 -158.86943 36837 ft 494 kts 79°
2026-04-22 23:53 60.00951 -158.73683 36838 ft 496 kts 79°
2026-04-22 23:53 60.02786 -158.60316 36836 ft 497 kts 79°
2026-04-22 23:54 60.04608 -158.46922 36837 ft 497 kts 79°
2026-04-22 23:54 60.06415 -158.33531 36838 ft 496 kts 80°
2026-04-22 23:55 60.08204 -158.20155 36842 ft 496 kts 80°
2026-04-22 23:55 60.09985 -158.06735 36855 ft 497 kts 80°
2026-04-22 23:56 60.11755 -157.93271 36864 ft 496 kts 80°
2026-04-22 23:56 60.13505 -157.79840 36870 ft 496 kts 80°
2026-04-22 23:57 60.15248 -157.66334 36871 ft 496 kts 80°
2026-04-22 23:57 60.16965 -157.52918 36874 ft 496 kts 80°
2026-04-22 23:58 60.18675 -157.39452 36873 ft 496 kts 80°
2026-04-22 23:58 60.20373 -157.25948 36872 ft 496 kts 81°
2026-04-22 23:59 60.22060 -157.12408 36873 ft 496 kts 81°
2026-04-22 23:59 60.23732 -156.98857 36871 ft 499 kts 81°
2026-04-23 00:00 60.25948 -156.80713 36872 ft 501 kts 81°
2026-04-23 00:01 60.27661 -156.66540 36873 ft 501 kts 81°
2026-04-23 00:01 60.29309 -156.52763 36871 ft 502 kts 81°
2026-04-23 00:02 60.30938 -156.39011 36863 ft 501 kts 81°
2026-04-23 00:02 60.32541 -156.25345 36854 ft 501 kts 81°
2026-04-23 00:03 60.34140 -156.11566 36851 ft 501 kts 82°
2026-04-23 00:03 60.35725 -155.97783 36878 ft 501 kts 82°
2026-04-23 00:04 60.37290 -155.84030 36910 ft 500 kts 82°
2026-04-23 00:04 60.38837 -155.70293 36927 ft 500 kts 82°
2026-04-23 00:05 60.40369 -155.56549 36935 ft 500 kts 82°
2026-04-23 00:05 60.41885 -155.42810 36937 ft 500 kts 82°
2026-04-23 00:06 60.43394 -155.29005 36939 ft 500 kts 82°
2026-04-23 00:06 60.44882 -155.15233 36938 ft 500 kts 82°
2026-04-23 00:07 60.46360 -155.01398 36938 ft 499 kts 83°
2026-04-23 00:07 60.47823 -154.87553 36933 ft 504 kts 83°
2026-04-23 00:08 60.49283 -154.73558 36937 ft 509 kts 83°
2026-04-23 00:08 60.50062 -154.66545 36796 ft 509 kts 80°
2026-04-23 00:08 60.50958 -154.59619 36226 ft 510 kts 79°
2026-04-23 00:08 60.51910 -154.52560 35388 ft 514 kts 79°
2026-04-23 00:09 60.52850 -154.45607 34545 ft 518 kts 79°
2026-04-23 00:09 60.53814 -154.38440 33735 ft 521 kts 79°
2026-04-23 00:09 60.54760 -154.31340 32952 ft 522 kts 80°
2026-04-23 00:09 60.55709 -154.24181 32237 ft 520 kts 80°
2026-04-23 00:10 60.56636 -154.17117 31558 ft 518 kts 80°
2026-04-23 00:10 60.57561 -154.10010 30833 ft 516 kts 80°
2026-04-23 00:10 60.58475 -154.02957 30085 ft 515 kts 80°
2026-04-23 00:10 60.59394 -153.95842 29284 ft 514 kts 80°
2026-04-23 00:11 60.60297 -153.88829 28653 ft 509 kts 80°
2026-04-23 00:11 60.61184 -153.81895 28134 ft 502 kts 80°
2026-04-23 00:11 60.62058 -153.75023 27718 ft 494 kts 81°
2026-04-23 00:11 60.62909 -153.68289 27299 ft 487 kts 81°
2026-04-23 00:12 60.63746 -153.61626 26865 ft 481 kts 81°
2026-04-23 00:12 60.64574 -153.55003 26356 ft 477 kts 81°
2026-04-23 00:12 60.65390 -153.48451 25866 ft 472 kts 81°
2026-04-23 00:12 60.66202 -153.41914 25382 ft 467 kts 81°
2026-04-23 00:13 60.66983 -153.35600 24903 ft 462 kts 81°
2026-04-23 00:13 60.67778 -153.29134 24436 ft 456 kts 81°
2026-04-23 00:13 60.68547 -153.22856 23948 ft 451 kts 82°
2026-04-23 00:13 60.69306 -153.16631 23451 ft 447 kts 81°
2026-04-23 00:14 60.70049 -153.10512 23005 ft 441 kts 81°
2026-04-23 00:14 60.70788 -153.04391 22618 ft 435 kts 81°
2026-04-23 00:14 60.71519 -152.98328 22230 ft 428 kts 82°
2026-04-23 00:14 60.72228 -152.92390 21845 ft 421 kts 82°
2026-04-23 00:15 60.72918 -152.86585 21485 ft 415 kts 82°
2026-04-23 00:15 60.73600 -152.80849 21226 ft 406 kts 82°
2026-04-23 00:15 60.74280 -152.75053 21009 ft 416 kts 83°
2026-04-23 00:15 60.74908 -152.69020 20749 ft 419 kts 83°
2026-04-23 00:16 60.75517 -152.62929 20488 ft 419 kts 83°
2026-04-23 00:16 60.76102 -152.57036 20232 ft 416 kts 83°
2026-04-23 00:16 60.76698 -152.51022 19971 ft 414 kts 83°
2026-04-23 00:16 60.77291 -152.45021 19712 ft 412 kts 83°
2026-04-23 00:17 60.77862 -152.39237 19460 ft 410 kts 83°
2026-04-23 00:17 60.78423 -152.33511 19210 ft 408 kts 84°
2026-04-23 00:17 60.78979 -152.27806 18960 ft 405 kts 84°
2026-04-23 00:17 60.79529 -152.22137 18713 ft 403 kts 84°
2026-04-23 00:18 60.80082 -152.16406 18439 ft 401 kts 83°
2026-04-23 00:18 60.80625 -152.10759 18082 ft 398 kts 83°
2026-04-23 00:18 60.81157 -152.05190 17695 ft 396 kts 83°
2026-04-23 00:18 60.81687 -151.99626 17297 ft 393 kts 83°
2026-04-23 00:19 60.82224 -151.93962 16885 ft 390 kts 83°
2026-04-23 00:19 60.82740 -151.88489 16485 ft 387 kts 83°
2026-04-23 00:19 60.83250 -151.83058 16089 ft 384 kts 83°
2026-04-23 00:19 60.83751 -151.77702 15697 ft 381 kts 83°
2026-04-23 00:20 60.84248 -151.72348 15303 ft 379 kts 83°
2026-04-23 00:20 60.84732 -151.67110 14918 ft 376 kts 83°
2026-04-23 00:20 60.85221 -151.61798 14526 ft 373 kts 83°
2026-04-23 00:20 60.85698 -151.56586 14142 ft 370 kts 82°
2026-04-23 00:21 60.86326 -151.49698 13631 ft 367 kts 82°
2026-04-23 00:21 60.86651 -151.46127 13365 ft 365 kts 82°
2026-04-23 00:21 60.87180 -151.40878 12971 ft 363 kts 79°
2026-04-23 00:21 60.87910 -151.35774 12576 ft 363 kts 74°
2026-04-23 00:22 60.88879 -151.30650 12075 ft 363 kts 71°
2026-04-23 00:22 60.89698 -151.25543 11634 ft 355 kts 79°
2026-04-23 00:22 60.90257 -151.20526 11313 ft 346 kts 80°
2026-04-23 00:22 60.90789 -151.15480 11006 ft 338 kts 80°
2026-04-23 00:23 60.91306 -151.10655 10722 ft 329 kts 80°
2026-04-23 00:23 60.91828 -151.05884 10452 ft 321 kts 79°
2026-04-23 00:23 60.92319 -151.01468 10202 ft 314 kts 79°
2026-04-23 00:23 60.92802 -150.97154 10029 ft 303 kts 79°
2026-04-23 00:24 60.93274 -150.92953 9900 ft 293 kts 79°
2026-04-23 00:24 60.93726 -150.88919 9632 ft 287 kts 79°
2026-04-23 00:24 60.94171 -150.84947 9344 ft 283 kts 78°
2026-04-23 00:24 60.94611 -150.81007 9061 ft 279 kts 78°
2026-04-23 00:25 60.95039 -150.77158 8784 ft 275 kts 78°
2026-04-23 00:25 60.95461 -150.73354 8500 ft 270 kts 78°
2026-04-23 00:25 60.95878 -150.69595 8205 ft 266 kts 78°
2026-04-23 00:25 60.96302 -150.65782 7905 ft 262 kts 77°
2026-04-23 00:26 60.96733 -150.61905 7572 ft 259 kts 77°
2026-04-23 00:26 60.97154 -150.58115 7151 ft 260 kts 76°
2026-04-23 00:26 60.97559 -150.54436 6763 ft 260 kts 76°
2026-04-23 00:26 60.97963 -150.50792 6434 ft 259 kts 78°
2026-04-23 00:27 60.98376 -150.47142 6114 ft 262 kts 79°
2026-04-23 00:27 60.98777 -150.43417 5749 ft 266 kts 78°
2026-04-23 00:27 60.99184 -150.39601 5369 ft 270 kts 78°
2026-04-23 00:27 60.99593 -150.35794 5044 ft 271 kts 78°
2026-04-23 00:28 61.00003 -150.31985 4746 ft 270 kts 78°
2026-04-23 00:28 61.00417 -150.28151 4458 ft 269 kts 78°
2026-04-23 00:28 61.00823 -150.24381 4176 ft 268 kts 78°
2026-04-23 00:28 61.01202 -150.20584 3891 ft 267 kts 81°
2026-04-23 00:29 61.01450 -150.16740 3611 ft 265 kts 83°
2026-04-23 00:29 61.01660 -150.12936 3333 ft 264 kts 83°
2026-04-23 00:29 61.01866 -150.09199 3076 ft 262 kts 83°
2026-04-23 00:29 61.02073 -150.05490 3001 ft 251 kts 83°
2026-04-23 00:30 61.02271 -150.01959 2993 ft 238 kts 83°
2026-04-23 00:30 61.02533 -149.98712 2961 ft 220 kts 71°
2026-04-23 00:30 61.03274 -149.96101 2821 ft 203 kts 45°
2026-04-23 00:30 61.04362 -149.94463 2667 ft 180 kts 21°
2026-04-23 00:31 61.05522 -149.93828 2473 ft 167 kts
2026-04-23 00:31 61.06636 -149.94003 2249 ft 155 kts 344°
2026-04-23 00:31 61.07676 -149.94571 2058 ft 153 kts 341°
2026-04-23 00:31 61.08701 -149.95181 1861 ft 152 kts 341°
2026-04-23 00:32 61.09719 -149.95779 1662 ft 151 kts 342°
2026-04-23 00:32 61.10736 -149.96364 1466 ft 151 kts 342°
2026-04-23 00:32 61.11753 -149.96939 1267 ft 150 kts 342°
2026-04-23 00:32 61.12763 -149.97507 1067 ft 149 kts 343°
2026-04-23 00:33 61.13765 -149.98067 868 ft 149 kts 343°
2026-04-23 00:33 61.14777 -149.98645 657 ft 148 kts 343°
2026-04-23 00:33 61.15763 -149.99182 460 ft 147 kts 344°
2026-04-23 00:33 61.16763 -149.99683 277 ft 146 kts 345°
2026-04-23 00:34 61.17730 -150.00172 169 ft 129 kts 345°
2026-04-23 00:34 61.18423 -150.00598 168 ft 77 kts 345°
2026-04-23 00:34 61.18788 -150.00801 168 ft 41 kts 345°
2026-04-23 00:34 61.19035 -150.00926 168 ft 22 kts
2026-04-23 00:35 61.19094 -150.00774 168 ft 14 kts 74°
2026-04-23 00:35 61.19058 -150.00597 168 ft 15 kts 154°
2026-04-23 00:35 61.18949 -150.00528 168 ft 17 kts 164°
2026-04-23 00:35 61.18827 -150.00458 168 ft 18 kts 165°
2026-04-23 00:36 61.18695 -150.00386 168 ft 20 kts 165°
2026-04-23 00:36 61.18551 -150.00305 168 ft 21 kts 165°
2026-04-23 00:36 61.18399 -150.00218 168 ft 23 kts 164°
2026-04-23 00:36 61.18237 -150.00125 168 ft 24 kts 165°
2026-04-23 00:37 61.18066 -150.00027 168 ft 26 kts 164°
2026-04-23 00:37 61.17908 -149.99933 168 ft 19 kts 164°
2026-04-23 00:37 61.17810 -149.99876 168 ft 7 kts 164°
2026-04-23 00:37 61.17746 -149.99838 168 ft 11 kts 164°
2026-04-23 00:38 61.17677 -149.99753 168 ft 12 kts 111°
2026-04-23 00:38 61.17682 -149.99556 168 ft 14 kts 104°
2026-04-23 00:38 61.17616 -149.99425 168 ft 11 kts 162°
2026-04-23 00:38 61.17579 -149.99322 168 ft 6 kts 81°
2026-04-23 00:39 61.17586 -149.99255 168 ft 2 kts 72°
2026-04-23 00:39 61.17589 -149.99236 168 ft 0 kts 72°